| time (UTC) | temp F | wind direction | speed knots | gust knots | rain 1hr in | rain 24hr in | rain mn in | humidity % | barometer mb |
| 20260502190451 | 74 | 51 | 2.6 | 7.8 | 0.00 | 0.74 | 0.00 | 68 | 1016.7 |
| 20260502190351 | 74 | 52 | 2.6 | 7.8 | 0.00 | 0.74 | 0.00 | 69 | 1016.8 |
| 20260502190251 | 74 | 58 | 2.6 | 7.8 | 0.00 | 0.74 | 0.00 | 69 | 1016.7 |
| 20260502190150 | 74 | 58 | 2.6 | 7.8 | 0.00 | 0.75 | 0.00 | 69 | 1016.8 |
| 20260502190051 | 74 | 73 | 3.5 | 9.6 | 0.00 | 0.75 | 0.00 | 69 | 1016.8 |
| 20260502185951 | 74 | 347 | 2.6 | 9.6 | 0.00 | 0.77 | 0.00 | 70 | 1016.8 |
| 20260502185851 | 74 | 34 | 2.6 | 9.6 | 0.00 | 0.77 | 0.00 | 70 | 1016.7 |
| 20260502185750 | 74 | 104 | 2.6 | 9.6 | 0.00 | 0.77 | 0.00 | 69 | 1016.8 |
| 20260502185650 | 73 | 75 | 3.5 | 9.6 | 0.00 | 0.77 | 0.00 | 68 | 1016.9 |
| 20260502185550 | 73 | 28 | 3.5 | 9.6 | 0.00 | 0.77 | 0.00 | 68 | 1016.9 |
| 20260502185450 | 73 | 114 | 4.3 | 9.6 | 0.00 | 0.78 | 0.00 | 68 | 1016.8 |
| 20260502185351 | 73 | 106 | 3.5 | 9.6 | 0.00 | 0.79 | 0.00 | 68 | 1016.9 |
| 20260502185250 | 73 | 7 | 4.3 | 9.6 | 0.00 | 0.79 | 0.00 | 68 | 1016.9 |
| 20260502185151 | 73 | 24 | 4.3 | 12.2 | 0.00 | 0.79 | 0.00 | 68 | 1016.9 |
| 20260502185050 | 73 | 32 | 4.3 | 12.2 | 0.00 | 0.79 | 0.00 | 68 | 1016.9 |
| 20260502184953 | 73 | 17 | 5.2 | 12.2 | 0.00 | 0.80 | 0.00 | 68 | 1016.9 |
| 20260502184851 | 73 | 78 | 5.2 | 12.2 | 0.00 | 0.80 | 0.00 | 71 | 1016.8 |
| 20260502184750 | 73 | 85 | 5.2 | 12.2 | 0.00 | 0.81 | 0.00 | 71 | 1016.9 |
| 20260502184651 | 73 | 0 | 3.5 | 12.2 | 0.00 | 0.81 | 0.00 | 71 | 1017.0 |
| 20260502184550 | 72 | 87 | 2.6 | 12.2 | 0.00 | 0.82 | 0.00 | 71 | 1016.9 |
| 20260502184451 | 73 | 6 | 3.5 | 12.2 | 0.00 | 0.82 | 0.00 | 69 | 1017.0 |
| 20260502184352 | 72 | 104 | 6.1 | 12.2 | 0.00 | 0.83 | 0.00 | 69 | 1016.9 |
| 20260502184251 | 73 | 58 | 6.1 | 12.2 | 0.00 | 0.83 | 0.00 | 70 | 1017.0 |
| 20260502184150 | 73 | 37 | 5.2 | 10.4 | 0.00 | 0.84 | 0.00 | 71 | 1017.0 |
| 20260502184051 | 73 | 17 | 5.2 | 10.4 | 0.00 | 0.84 | 0.00 | 71 | 1017.0 |
| 20260502183951 | 73 | 90 | 4.3 | 8.7 | 0.00 | 0.84 | 0.00 | 75 | 1017.1 |
| 20260502183850 | 73 | 23 | 4.3 | 9.6 | 0.00 | 0.89 | 0.00 | 75 | 1017.0 |
| 20260502183752 | 73 | 17 | 4.3 | 9.6 | 0.00 | 0.89 | 0.00 | 80 | 1017.0 |
| 20260502183651 | 73 | 131 | 2.6 | 9.6 | 0.00 | 0.89 | 0.00 | 75 | 1017.1 |
| 20260502183551 | 73 | 35 | 3.5 | 9.6 | 0.00 | 0.89 | 0.00 | 72 | 1017.1 |
| 20260502183450 | 73 | 34 | 4.3 | 9.6 | 0.00 | 0.89 | 0.00 | 70 | 1017.0 |
| 20260502183349 | 73 | 72 | 3.5 | 9.6 | 0.00 | 0.89 | 0.00 | 70 | 1017.1 |
| 20260502183251 | 73 | 49 | 4.3 | 9.6 | 0.00 | 0.89 | 0.00 | 70 | 1017.1 |
| 20260502183150 | 73 | 72 | 4.3 | 9.6 | 0.00 | 0.89 | 0.00 | 70 | 1017.1 |
| 20260502183049 | 73 | 23 | 5.2 | 9.6 | 0.00 | 0.89 | 0.00 | 73 | 1017.1 |
| 20260502182951 | 73 | 317 | 5.2 | 9.6 | 0.00 | 0.90 | 0.00 | 73 | 1017.2 |
| 20260502182851 | 73 | 87 | 4.3 | 9.6 | 0.00 | 0.90 | 0.00 | 75 | 1017.2 |
| 20260502182751 | 72 | 72 | 2.6 | 9.6 | 0.00 | 0.90 | 0.00 | 75 | 1017.3 |
| 20260502182651 | 72 | 18 | 3.5 | 9.6 | 0.00 | 0.90 | 0.00 | 75 | 1017.1 |
| 20260502182550 | 72 | 90 | 5.2 | 9.6 | 0.00 | 0.91 | 0.00 | 76 | 1017.2 |
| 20260502182451 | 72 | 69 | 5.2 | 8.7 | 0.00 | 0.91 | 0.00 | 76 | 1017.2 |
| 20260502182350 | 72 | 35 | 4.3 | 8.7 | 0.00 | 0.93 | 0.00 | 75 | 1017.2 |
| 20260502182251 | 73 | 52 | 1.7 | 8.7 | 0.00 | 0.93 | 0.00 | 75 | 1017.1 |
| 20260502182150 | 73 | 106 | 2.6 | 8.7 | 0.00 | 0.93 | 0.00 | 78 | 1017.2 |
| 20260502182049 | 73 | 54 | 3.5 | 8.7 | 0.00 | 0.93 | 0.00 | 78 | 1017.2 |
| 20260502181949 | 73 | 0 | 3.5 | 8.7 | 0.00 | 0.93 | 0.00 | 78 | 1017.2 |
| 20260502181850 | 73 | 79 | 4.3 | 8.7 | 0.00 | 0.94 | 0.00 | 76 | 1017.2 |
| 20260502181751 | 73 | 0 | 3.5 | 8.7 | 0.00 | 0.94 | 0.00 | 79 | 1017.3 |
| 20260502181649 | 73 | 68 | 2.6 | 8.7 | 0.00 | 0.94 | 0.00 | 89 | 1017.2 |
| 20260502181550 | 73 | 56 | 3.5 | 8.7 | 0.00 | 0.94 | 0.00 | 89 | 1017.3 |
| 20260502181450 | 73 | 83 | 3.5 | 8.7 | 0.00 | 0.94 | 0.00 | 79 | 1017.3 |
| 20260502181351 | 73 | 55 | 2.6 | 8.7 | 0.00 | 0.94 | 0.00 | 87 | 1017.3 |
| 20260502181250 | 73 | 69 | 3.5 | 8.7 | 0.00 | 0.95 | 0.00 | 87 | 1017.3 |
| 20260502181151 | 72 | 0 | 4.3 | 8.7 | 0.00 | 0.95 | 0.00 | 87 | 1017.3 |
| 20260502181050 | 72 | 42 | 4.3 | 8.7 | 0.00 | 0.95 | 0.00 | 87 | 1017.3 |
| 20260502180949 | 72 | 63 | 3.5 | 8.7 | 0.00 | 0.95 | 0.00 | 87 | 1017.4 |
| 20260502180850 | 72 | 111 | 4.3 | 8.7 | 0.00 | 0.95 | 0.00 | 87 | 1017.4 |
| 20260502180750 | 72 | 48 | 3.5 | 8.7 | 0.00 | 0.95 | 0.00 | 87 | 1017.4 |
| 20260502180650 | 71 | 59 | 2.6 | 8.7 | 0.00 | 0.95 | 0.00 | 83 | 1017.4 |
| 20260502180549 | 71 | 90 | 2.6 | 8.7 | 0.00 | 0.95 | 0.00 | 83 | 1017.4 |
| 20260502180450 | 71 | 357 | 3.5 | 8.7 | 0.00 | 0.95 | 0.00 | 88 | 1017.4 |
| 20260502180351 | 71 | 114 | 3.5 | 8.7 | 0.00 | 0.95 | 0.00 | 88 | 1017.4 |
| 20260502180251 | 71 | 58 | 2.6 | 8.7 | 0.00 | 0.96 | 0.00 | 88 | 1017.4 |
| 20260502180151 | 72 | 16 | 2.6 | 8.7 | 0.00 | 0.96 | 0.00 | 95 | 1017.5 |
| 20260502170503 | 71 | 0 | 3.5 | 9.6 | 0.00 | 1.00 | 0.00 | 100 | 1017.6 |
| 20260502170401 | 71 | 87 | 4.3 | 9.6 | 0.00 | 1.01 | 0.00 | 100 | 1017.7 |
| 20260502170304 | 71 | 39 | 5.2 | 10.4 | 0.00 | 1.01 | 0.00 | 100 | 1017.7 |
| 20260502170203 | 71 | 35 | 4.3 | 10.4 | 0.00 | 1.01 | 0.00 | 100 | 1017.8 |
| 20260502164303 | 70 | 85 | 2.6 | 10.4 | 0.00 | 1.09 | 0.00 | 100 | 1017.8 |
| 20260502164203 | 70 | 85 | 2.6 | 10.4 | 0.00 | 1.12 | 0.00 | 100 | 1017.8 |
| 20260502164103 | 70 | 299 | 3.5 | 10.4 | 0.00 | 1.12 | 0.00 | 100 | 1017.8 |
| 20260502164003 | 70 | 0 | 4.3 | 10.4 | 0.00 | 1.12 | 0.00 | 100 | 1017.8 |
| 20260502163902 | 70 | 72 | 2.6 | 10.4 | 0.00 | 1.12 | 0.00 | 100 | 1017.8 |
| 20260502163801 | 70 | 78 | 1.7 | 10.4 | 0.00 | 1.12 | 0.00 | 100 | 1017.9 |
| 20260502163703 | 70 | 323 | 4.3 | 10.4 | 0.00 | 1.12 | 0.00 | 100 | 1017.8 |
| 20260502163603 | 70 | 282 | 5.2 | 10.4 | 0.00 | 1.12 | 0.00 | 100 | 1017.8 |
| 20260502163503 | 70 | 337 | 2.6 | 9.6 | 0.00 | 1.12 | 0.00 | 100 | 1017.8 |
| 20260502163403 | 70 | 330 | 1.7 | 9.6 | 0.00 | 1.12 | 0.00 | 100 | 1017.8 |
| 20260502163303 | 71 | 75 | 2.6 | 9.6 | 0.00 | 1.13 | 0.00 | 100 | 1017.8 |
| 20260502163204 | 71 | 52 | 3.5 | 9.6 | 0.00 | 1.13 | 0.00 | 100 | 1017.8 |
| 20260502163103 | 71 | 69 | 3.5 | 9.6 | 0.00 | 1.13 | 0.00 | 100 | 1017.8 |
| 20260502163002 | 70 | 292 | 3.5 | 9.6 | 0.00 | 1.13 | 0.00 | 100 | 1017.8 |
| 20260502162902 | 70 | 124 | 3.5 | 9.6 | 0.00 | 1.14 | 0.00 | 100 | 1017.8 |
| 20260502162802 | 70 | 34 | 2.6 | 9.6 | 0.00 | 1.14 | 0.00 | 100 | 1017.7 |
| 20260502162702 | 70 | 85 | 1.7 | 8.7 | 0.00 | 1.14 | 0.00 | 100 | 1017.8 |
| 20260502162603 | 70 | 0 | 2.6 | 8.7 | 0.00 | 1.14 | 0.00 | 100 | 1017.8 |
| 20260502162502 | 70 | 82 | 2.6 | 8.7 | 0.00 | 1.14 | 0.00 | 100 | 1017.8 |
| 20260502162402 | 70 | 235 | 1.7 | 5.2 | 0.00 | 1.14 | 0.00 | 100 | 1017.7 |
| 20260502162304 | 69 | 0 | 2.6 | 5.2 | 0.00 | 1.15 | 0.00 | 100 | 1017.8 |
| 20260502162203 | 69 | 92 | 3.5 | 6.1 | 0.00 | 1.15 | 0.00 | 100 | 1017.8 |
| 20260502162102 | 69 | 97 | 2.6 | 6.1 | 0.00 | 1.15 | 0.00 | 100 | 1017.8 |
| 20260502162005 | 69 | 61 | 3.5 | 6.1 | 0.00 | 1.16 | 0.00 | 100 | 1017.8 |
| 20260502161902 | 69 | 51 | 3.5 | 6.1 | 0.00 | 1.16 | 0.00 | 100 | 1017.8 |
| 20260502161802 | 69 | 100 | 2.6 | 6.1 | 0.00 | 1.16 | 0.00 | 100 | 1017.8 |
| 20260502161703 | 69 | 85 | 2.6 | 6.1 | 0.00 | 1.17 | 0.00 | 100 | 1017.7 |
| 20260502161603 | 69 | 16 | 2.6 | 8.7 | 0.00 | 1.18 | 0.00 | 100 | 1017.8 |
| 20260502161505 | 69 | 17 | 1.7 | 8.7 | 0.00 | 1.18 | 0.00 | 100 | 1017.7 |
| 20260502161402 | 69 | 102 | 1.7 | 8.7 | 0.00 | 1.18 | 0.00 | 100 | 1017.6 |
| 20260502161301 | 69 | 78 | 1.7 | 8.7 | 0.00 | 1.19 | 0.00 | 100 | 1017.7 |
| 20260502161203 | 69 | 85 | 1.7 | 8.7 | 0.00 | 1.21 | 0.00 | 100 | 1017.7 |
| 20260502161103 | 69 | 68 | 1.7 | 8.7 | 0.00 | 1.21 | 0.00 | 100 | 1017.7 |
| 20260502161005 | 69 | 71 | 1.7 | 8.7 | 0.00 | 1.21 | 0.00 | 100 | 1017.7 |
| 20260502160902 | 69 | 76 | 2.6 | 8.7 | 0.00 | 1.21 | 0.00 | 100 | 1017.7 |
| 20260502160802 | 69 | 94 | 2.6 | 8.7 | 0.00 | 1.21 | 0.00 | 100 | 1017.7 |
| 20260502160702 | 69 | 61 | 3.5 | 8.7 | 0.00 | 1.21 | 0.00 | 100 | 1017.6 |
| 20260502160603 | 69 | 344 | 3.5 | 6.1 | 0.00 | 1.21 | 0.00 | 100 | 1017.6 |
| 20260502160504 | 69 | 52 | 2.6 | 6.1 | 0.00 | 1.21 | 0.00 | 100 | 1017.7 |
| 20260502160403 | 69 | 37 | 1.7 | 6.1 | 0.00 | 1.21 | 0.00 | 100 | 1017.7 |
| 20260502160304 | 69 | 41 | 2.6 | 6.1 | 0.00 | 1.21 | 0.00 | 100 | 1017.7 |
| 20260502160203 | 68 | 85 | 2.6 | 6.1 | 0.00 | 1.21 | 0.00 | 100 | 1017.7 |
| 20260502160103 | 68 | 79 | 1.7 | 6.1 | 0.00 | 1.21 | 0.00 | 100 | 1017.7 |
| 20260502152305 | 65 | 0 | 4.3 | 9.6 | 0.00 | 1.21 | 0.00 | 100 | 1017.7 |
| 20260502152201 | 65 | 344 | 4.3 | 9.6 | 0.00 | 1.22 | 0.00 | 100 | 1017.7 |
| 20260502152103 | 65 | 10 | 3.5 | 9.6 | 0.00 | 1.22 | 0.00 | 100 | 1017.7 |
| 20260502152004 | 65 | 314 | 4.3 | 9.6 | 0.00 | 1.22 | 0.00 | 100 | 1017.7 |
| 20260502151903 | 65 | 303 | 3.5 | 9.6 | 0.00 | 1.22 | 0.00 | 100 | 1017.7 |
| 20260502151803 | 65 | 0 | 2.6 | 6.1 | 0.00 | 1.22 | 0.00 | 100 | 1017.6 |
| 20260502151703 | 65 | 18 | 1.7 | 6.1 | 0.00 | 1.22 | 0.00 | 100 | 1017.7 |
| 20260502151552 | 65 | 355 | 1.7 | 6.1 | 0.00 | 1.22 | 0.00 | 100 | 1017.7 |
| 20260502151438 | 65 | 49 | 1.7 | 6.1 | 0.00 | 1.22 | 0.00 | 100 | 1017.6 |
| 20260502151340 | 65 | 92 | 3.5 | 6.1 | 0.00 | 1.22 | 0.00 | 100 | 1017.7 |
| 20260502151239 | 64 | 0 | 3.5 | 6.1 | 0.00 | 1.22 | 0.00 | 100 | 1017.7 |
| 20260502151139 | 64 | 79 | 2.6 | 6.1 | 0.00 | 1.22 | 0.00 | 100 | 1017.7 |
| 20260502151039 | 64 | 109 | 1.7 | 3.5 | 0.00 | 1.22 | 0.00 | 100 | 1017.6 |
| 20260502150939 | 0 | 0.0 | 0.0 | 0.00 | 1.22 | 0.00 | 1017.6 | ||
| 20260502150839 | 0 | 0.0 | 0.0 | 0.00 | 1.22 | 0.00 | 1017.7 | ||
| 20260502150740 | 0 | 0.0 | 0.0 | 0.00 | 1.22 | 0.00 | 1017.6 | ||
| 20260502150639 | 0 | 0.0 | 0.0 | 0.00 | 1.22 | 0.00 | 1017.7 | ||
| 20260502150537 | 0 | 0.0 | 0.0 | 0.00 | 1.22 | 0.00 | 1017.7 | ||
| 20260502150437 | 0 | 0.0 | 0.0 | 0.00 | 1.22 | 0.00 | 1017.6 | ||
| 20260502150338 | 0 | 0.0 | 0.0 | 0.00 | 1.22 | 0.00 | 1017.6 | ||
| 20260502150238 | 0 | 0.0 | 0.0 | 0.00 | 1.22 | 0.00 | 1017.6 | ||
| 20260502150134 | 0 | 0.0 | 0.0 | 0.00 | 1.22 | 0.00 | 1017.6 | ||
| 20260502130731 | 54 | 353 | 1.7 | 4.3 | 0.00 | 1.42 | 0.00 | 100 | 1016.5 |
| 20260502130631 | 54 | 353 | 1.7 | 4.3 | 0.00 | 1.42 | 0.00 | 100 | 1016.3 |
| 20260502130532 | 54 | 102 | 1.7 | 4.3 | 0.00 | 1.42 | 0.00 | 100 | 1016.4 |
| 20260502130430 | 54 | 288 | 1.7 | 4.3 | 0.00 | 1.42 | 0.00 | 100 | 1016.3 |
| 20260502130331 | 54 | 14 | 0.9 | 5.2 | 0.00 | 1.42 | 0.00 | 100 | 1016.3 |
| 20260502130232 | 54 | 331 | 1.7 | 5.2 | 0.00 | 1.42 | 0.00 | 100 | 1016.3 |
| 20260502130131 | 54 | 331 | 2.6 | 5.2 | 0.00 | 1.42 | 0.00 | 100 | 1016.3 |
| 20260502123730 | 53 | 330 | 0.9 | 5.2 | 0.00 | 1.43 | 0.00 | 100 | 1015.8 |
| 20260502123630 | 53 | 21 | 0.9 | 5.2 | 0.00 | 1.43 | 0.00 | 100 | 1015.8 |
| 20260502123530 | 53 | 17 | 1.7 | 5.2 | 0.00 | 1.43 | 0.00 | 100 | 1015.7 |
| 20260502123430 | 53 | 11 | 0.9 | 5.2 | 0.00 | 1.43 | 0.00 | 100 | 1015.7 |
| 20260502123330 | 53 | 0 | 1.7 | 5.2 | 0.00 | 1.43 | 0.00 | 100 | 1015.8 |
| 20260502123230 | 53 | 0 | 1.7 | 5.2 | 0.00 | 1.43 | 0.00 | 100 | 1015.7 |
| 20260502123131 | 53 | 63 | 1.7 | 5.2 | 0.00 | 1.43 | 0.00 | 100 | 1015.7 |
| 20260502123030 | 53 | 331 | 1.7 | 4.3 | 0.00 | 1.43 | 0.00 | 100 | 1015.8 |
| 20260502122929 | 53 | 313 | 1.7 | 4.3 | 0.00 | 1.43 | 0.00 | 100 | 1015.7 |
| 20260502122829 | 53 | 16 | 1.7 | 4.3 | 0.00 | 1.43 | 0.00 | 100 | 1015.8 |
| 20260502122729 | 53 | 0 | 0.9 | 2.6 | 0.00 | 1.43 | 0.00 | 100 | 1015.8 |
| 20260502122630 | 53 | 0 | 0.0 | 2.6 | 0.00 | 1.43 | 0.00 | 100 | 1015.8 |
| 20260502122530 | 53 | 11 | 0.0 | 2.6 | 0.00 | 1.43 | 0.00 | 100 | 1015.8 |
| 20260502122429 | 53 | 11 | 1.7 | 2.6 | 0.00 | 1.43 | 0.00 | 100 | 1015.8 |
| 20260502122331 | 53 | 0 | 1.7 | 2.6 | 0.00 | 1.43 | 0.00 | 100 | 1015.7 |
| 20260502122231 | 53 | 0 | 1.7 | 1.7 | 0.00 | 1.43 | 0.00 | 100 | 1015.8 |
| 20260502122131 | 53 | 351 | 0.9 | 1.7 | 0.00 | 1.43 | 0.00 | 100 | 1015.8 |
| 20260502122031 | 53 | 351 | 0.9 | 1.7 | 0.00 | 1.43 | 0.00 | 100 | 1015.8 |
| 20260502121930 | 53 | 351 | 0.9 | 1.7 | 0.00 | 1.43 | 0.00 | 100 | 1015.8 |
| 20260502121831 | 53 | 351 | 0.9 | 1.7 | 0.00 | 1.43 | 0.00 | 100 | 1015.8 |
| 20260502121731 | 53 | 6 | 0.9 | 0.9 | 0.00 | 1.43 | 0.00 | 100 | 1015.7 |
| 20260502121630 | 53 | 6 | 0.9 | 1.7 | 0.00 | 1.43 | 0.00 | 100 | 1015.8 |
| 20260502121528 | 53 | 6 | 0.9 | 1.7 | 0.00 | 1.43 | 0.00 | 100 | 1015.8 |
| 20260502121429 | 53 | 6 | 0.9 | 1.7 | 0.00 | 1.43 | 0.00 | 100 | 1015.7 |
| 20260502121328 | 53 | 6 | 0.9 | 1.7 | 0.00 | 1.43 | 0.00 | 100 | 1015.7 |
| 20260502121228 | 53 | 6 | 0.9 | 1.7 | 0.00 | 1.43 | 0.00 | 100 | 1015.6 |
| 20260502121128 | 53 | 6 | 0.9 | 1.7 | 0.00 | 1.43 | 0.00 | 100 | 1015.6 |
| 20260502121028 | 53 | 6 | 0.9 | 1.7 | 0.00 | 1.43 | 0.00 | 100 | 1015.7 |
| 20260502120928 | 53 | 6 | 0.9 | 2.6 | 0.00 | 1.43 | 0.00 | 100 | 1015.7 |
| 20260502120827 | 53 | 4 | 0.9 | 2.6 | 0.00 | 1.43 | 0.00 | 100 | 1015.7 |
| 20260502120728 | 53 | 7 | 0.9 | 2.6 | 0.00 | 1.43 | 0.00 | 100 | 1015.6 |
| 20260502120628 | 53 | 299 | 0.9 | 3.5 | 0.00 | 1.43 | 0.00 | 100 | 1015.6 |
| 20260502120527 | 53 | 353 | 0.9 | 3.5 | 0.00 | 1.43 | 0.00 | 100 | 1015.6 |
| 20260502120428 | 53 | 353 | 0.9 | 3.5 | 0.00 | 1.43 | 0.00 | 100 | 1015.5 |
| 20260502120328 | 53 | 353 | 0.9 | 3.5 | 0.00 | 1.43 | 0.00 | 100 | 1015.6 |
| 20260502120227 | 53 | 0 | 0.9 | 3.5 | 0.00 | 1.43 | 0.00 | 100 | 1015.6 |
| 20260502120128 | 52 | 355 | 1.7 | 3.5 | 0.00 | 1.43 | 0.00 | 100 | 1015.5 |
| 20260502115927 | 53 | 355 | 0.9 | 3.5 | 0.00 | 1.43 | 0.00 | 100 | 1015.6 |
| 20260502115827 | 53 | 355 | 1.7 | 3.5 | 0.00 | 1.43 | 0.00 | 100 | 1015.5 |
| 20260502115729 | 53 | 355 | 0.9 | 3.5 | 0.00 | 1.43 | 0.00 | 100 | 1015.5 |
| 20260502115628 | 53 | 21 | 0.0 | 3.5 | 0.00 | 1.43 | 0.00 | 100 | 1015.5 |
| 20260502115526 | 53 | 21 | 0.9 | 3.5 | 0.00 | 1.43 | 0.00 | 100 | 1015.4 |
| 20260502115428 | 53 | 21 | 0.9 | 3.5 | 0.00 | 1.43 | 0.00 | 100 | 1015.5 |
| 20260502115327 | 53 | 39 | 0.0 | 3.5 | 0.00 | 1.43 | 0.00 | 100 | 1015.5 |
| 20260502115227 | 53 | 347 | 0.0 | 3.5 | 0.00 | 1.43 | 0.00 | 100 | 1015.4 |
| 20260502115129 | 53 | 347 | 0.9 | 3.5 | 0.00 | 1.43 | 0.00 | 100 | 1015.4 |
| 20260502115026 | 53 | 347 | 0.9 | 3.5 | 0.00 | 1.43 | 0.00 | 100 | 1015.4 |
| 20260502114927 | 52 | 321 | 1.7 | 3.5 | 0.00 | 1.43 | 0.00 | 100 | 1015.5 |
| 20260502114827 | 52 | 32 | 1.7 | 3.5 | 0.00 | 1.43 | 0.00 | 100 | 1015.5 |
| 20260502114726 | 52 | 350 | 0.9 | 2.6 | 0.00 | 1.43 | 0.00 | 100 | 1015.4 |
| 20260502114626 | 52 | 350 | 0.0 | 2.6 | 0.00 | 1.43 | 0.00 | 100 | 1015.4 |
| 20260502114528 | 52 | 351 | 0.0 | 2.6 | 0.00 | 1.43 | 0.00 | 100 | 1015.5 |
| 20260502114427 | 52 | 351 | 0.9 | 2.6 | 0.00 | 1.43 | 0.00 | 100 | 1015.5 |
| 20260502114328 | 52 | 0 | 0.9 | 2.6 | 0.00 | 1.43 | 0.00 | 100 | 1015.4 |
| 20260502114228 | 52 | 0 | 0.9 | 2.6 | 0.00 | 1.43 | 0.00 | 100 | 1015.4 |
| 20260502114126 | 52 | 353 | 0.0 | 2.6 | 0.00 | 1.43 | 0.00 | 100 | 1015.4 |
| 20260502114028 | 52 | 353 | 0.9 | 2.6 | 0.00 | 1.43 | 0.00 | 100 | 1015.4 |
| 20260502113926 | 52 | 353 | 1.7 | 2.6 | 0.00 | 1.43 | 0.00 | 100 | 1015.3 |
| 20260502113827 | 52 | 0 | 1.7 | 2.6 | 0.00 | 1.43 | 0.00 | 100 | 1015.3 |
| 20260502113727 | 52 | 6 | 0.9 | 1.7 | 0.00 | 1.43 | 0.00 | 100 | 1015.4 |
| 20260502113626 | 52 | 8 | 0.9 | 1.7 | 0.00 | 1.43 | 0.00 | 100 | 1015.3 |
| 20260502113527 | 52 | 11 | 0.9 | 1.7 | 0.00 | 1.43 | 0.00 | 100 | 1015.3 |
| 20260502113427 | 52 | 11 | 0.9 | 1.7 | 0.00 | 1.43 | 0.00 | 100 | 1015.3 |
| 20260502113327 | 52 | 0 | 0.0 | 1.7 | 0.00 | 1.43 | 0.00 | 100 | 1015.3 |
| 20260502113227 | 52 | 0 | 0.9 | 1.7 | 0.00 | 1.43 | 0.00 | 100 | 1015.3 |
| 20260502113127 | 52 | 0 | 0.9 | 2.6 | 0.00 | 1.43 | 0.00 | 100 | 1015.2 |
| 20260502113026 | 52 | 0 | 0.9 | 2.6 | 0.00 | 1.43 | 0.00 | 100 | 1015.2 |
| 20260502112927 | 52 | 0 | 0.0 | 2.6 | 0.00 | 1.43 | 0.00 | 100 | 1015.2 |
| 20260502112827 | 52 | 0 | 0.0 | 3.5 | 0.00 | 1.43 | 0.00 | 100 | 1015.2 |
| 20260502112726 | 52 | 358 | 0.9 | 3.5 | 0.00 | 1.43 | 0.00 | 100 | 1015.1 |
| 20260502112627 | 52 | 0 | 0.9 | 3.5 | 0.00 | 1.43 | 0.00 | 100 | 1015.2 |
| 20260502112527 | 52 | 347 | 0.9 | 3.5 | 0.00 | 1.43 | 0.00 | 100 | 1015.1 |
| 20260502112427 | 52 | 350 | 0.9 | 3.5 | 0.00 | 1.43 | 0.00 | 100 | 1015.2 |
| 20260502112325 | 52 | 319 | 1.7 | 3.5 | 0.00 | 1.44 | 0.00 | 100 | 1015.1 |
| 20260502112226 | 52 | 0 | 0.9 | 3.5 | 0.00 | 1.44 | 0.00 | 100 | 1015.1 |
| 20260502112127 | 52 | 18 | 0.9 | 3.5 | 0.00 | 1.44 | 0.00 | 100 | 1015.1 |
| 20260502112027 | 52 | 10 | 1.7 | 3.5 | 0.00 | 1.44 | 0.00 | 100 | 1015.1 |
| 20260502111928 | 52 | 357 | 1.7 | 3.5 | 0.00 | 1.44 | 0.00 | 100 | 1015.2 |
| 20260502111827 | 52 | 355 | 1.7 | 3.5 | 0.00 | 1.44 | 0.00 | 100 | 1015.1 |
| 20260502111726 | 52 | 295 | 0.9 | 3.5 | 0.00 | 1.44 | 0.00 | 100 | 1015.1 |
| 20260502111627 | 52 | 35 | 0.9 | 3.5 | 0.00 | 1.44 | 0.00 | 100 | 1015.1 |
| 20260502111527 | 52 | 35 | 0.9 | 3.5 | 0.00 | 1.44 | 0.00 | 100 | 1015.1 |
| 20260502111427 | 52 | 39 | 0.9 | 3.5 | 0.00 | 1.44 | 0.00 | 100 | 1015.1 |
| 20260502111326 | 52 | 38 | 0.9 | 3.5 | 0.00 | 1.44 | 0.00 | 100 | 1015.1 |
| 20260502111227 | 52 | 293 | 0.9 | 3.5 | 0.00 | 1.44 | 0.00 | 100 | 1015.1 |
| 20260502111126 | 52 | 28 | 2.6 | 3.5 | 0.00 | 1.44 | 0.00 | 100 | 1015.1 |
| 20260502111026 | 52 | 28 | 1.7 | 3.5 | 0.00 | 1.44 | 0.00 | 100 | 1015.0 |
| 20260502110925 | 52 | 1 | 1.7 | 3.5 | 0.00 | 1.44 | 0.00 | 100 | 1015.1 |
| 20260502110827 | 52 | 69 | 0.9 | 2.6 | 0.00 | 1.44 | 0.00 | 100 | 1015.1 |
| 20260502110726 | 52 | 0 | 1.7 | 2.6 | 0.00 | 1.44 | 0.00 | 100 | 1015.0 |
| 20260502110627 | 52 | 0 | 1.7 | 2.6 | 0.00 | 1.44 | 0.00 | 100 | 1015.0 |
| 20260502110526 | 52 | 310 | 0.0 | 2.6 | 0.00 | 1.44 | 0.00 | 100 | 1015.0 |
| 20260502110427 | 52 | 313 | 0.9 | 2.6 | 0.00 | 1.44 | 0.00 | 100 | 1014.9 |
| 20260502110326 | 52 | 314 | 0.9 | 3.5 | 0.00 | 1.44 | 0.00 | 100 | 1014.8 |
| 20260502110227 | 52 | 331 | 0.9 | 5.2 | 0.00 | 1.44 | 0.00 | 100 | 1014.9 |
| 20260502110125 | 52 | 357 | 0.9 | 5.2 | 0.00 | 1.44 | 0.00 | 100 | 1014.9 |
| 20260502110027 | 52 | 32 | 0.9 | 5.2 | 0.00 | 1.45 | 0.00 | 100 | 1014.8 |
| 20260502105927 | 52 | 204 | 0.9 | 5.2 | 0.00 | 1.45 | 0.00 | 100 | 1014.8 |
| 20260502105826 | 52 | 204 | 0.9 | 5.2 | 0.00 | 1.45 | 0.00 | 100 | 1014.8 |
| 20260502105725 | 52 | 245 | 0.9 | 5.2 | 0.00 | 1.45 | 0.00 | 100 | 1014.8 |
| 20260502105627 | 52 | 355 | 0.9 | 5.2 | 0.00 | 1.45 | 0.00 | 100 | 1014.8 |
| 20260502105527 | 52 | 62 | 1.7 | 5.2 | 0.00 | 1.46 | 0.00 | 100 | 1014.8 |
| 20260502105426 | 52 | 18 | 2.6 | 5.2 | 0.00 | 1.46 | 0.00 | 100 | 1014.8 |
| 20260502105327 | 52 | 1 | 2.6 | 5.2 | 0.00 | 1.46 | 0.00 | 100 | 1014.7 |
| 20260502105225 | 52 | 0 | 1.7 | 5.2 | 0.00 | 1.47 | 0.00 | 100 | 1014.8 |
| 20260502105125 | 52 | 7 | 0.9 | 4.3 | 0.00 | 1.47 | 0.00 | 100 | 1014.7 |
| 20260502105026 | 52 | 6 | 0.9 | 4.3 | 0.00 | 1.48 | 0.00 | 100 | 1014.7 |
| 20260502104926 | 52 | 18 | 0.0 | 4.3 | 0.00 | 1.49 | 0.00 | 100 | 1014.7 |
| 20260502104827 | 52 | 18 | 0.0 | 4.3 | 0.00 | 1.49 | 0.00 | 100 | 1014.7 |
| 20260502104726 | 52 | 353 | 0.9 | 4.3 | 0.00 | 1.49 | 0.00 | 100 | 1014.7 |
| 20260502104626 | 52 | 0 | 1.7 | 4.3 | 0.00 | 1.49 | 0.00 | 100 | 1014.6 |
| 20260502104526 | 52 | 303 | 1.7 | 4.3 | 0.00 | 1.49 | 0.00 | 100 | 1014.7 |
| 20260502104426 | 52 | 345 | 1.7 | 4.3 | 0.00 | 1.50 | 0.00 | 100 | 1014.7 |
| 20260502104326 | 52 | 288 | 1.7 | 4.3 | 0.00 | 1.50 | 0.00 | 100 | 1014.7 |
| 20260502104227 | 52 | 35 | 1.7 | 4.3 | 0.00 | 1.50 | 0.00 | 100 | 1014.6 |
| 20260502104127 | 52 | 0 | 1.7 | 4.3 | 0.00 | 1.52 | 0.00 | 100 | 1014.7 |
| 20260502104026 | 52 | 8 | 1.7 | 4.3 | 0.00 | 1.52 | 0.00 | 100 | 1014.7 |
| 20260502103925 | 52 | 13 | 1.7 | 4.3 | 0.00 | 1.52 | 0.00 | 100 | 1014.6 |
| 20260502103826 | 52 | 0 | 2.6 | 4.3 | 0.00 | 1.52 | 0.00 | 100 | 1014.7 |
| 20260502103725 | 52 | 0 | 2.6 | 4.3 | 0.00 | 1.52 | 0.00 | 100 | 1014.6 |
| 20260502103626 | 52 | 314 | 1.7 | 4.3 | 0.00 | 1.52 | 0.00 | 100 | 1014.7 |
| 20260502103525 | 52 | 330 | 0.9 | 4.3 | 0.00 | 1.52 | 0.00 | 100 | 1014.7 |
| 20260502103426 | 52 | 330 | 1.7 | 4.3 | 0.00 | 1.52 | 0.00 | 100 | 1014.6 |
| 20260502103319 | 52 | 340 | 0.9 | 4.3 | 0.00 | 1.52 | 0.00 | 100 | 1014.6 |
| 20260502103210 | 52 | 248 | 0.9 | 4.3 | 0.00 | 1.53 | 0.00 | 100 | 1014.6 |
| 20260502103105 | 52 | 3 | 1.7 | 4.3 | 0.00 | 1.53 | 0.00 | 100 | 1014.5 |
| 20260502103003 | 53 | 14 | 1.7 | 4.3 | 0.00 | 1.54 | 0.00 | 100 | 1014.6 |
| 20260502102902 | 53 | 0 | 0.9 | 4.3 | 0.00 | 1.54 | 0.00 | 100 | 1014.6 |
| 20260502102803 | 53 | 336 | 1.7 | 4.3 | 0.00 | 1.54 | 0.00 | 100 | 1014.5 |
| 20260502102704 | 53 | 310 | 1.7 | 4.3 | 0.00 | 1.55 | 0.00 | 100 | 1014.5 |
| 20260502102604 | 53 | 344 | 0.9 | 4.3 | 0.00 | 1.56 | 0.00 | 100 | 1014.4 |
| 20260502102501 | 53 | 336 | 0.9 | 4.3 | 0.00 | 1.56 | 0.00 | 100 | 1014.5 |
| 20260502102403 | 53 | 343 | 0.9 | 4.3 | 0.00 | 1.56 | 0.00 | 100 | 1014.4 |
| 20260502102305 | 53 | 343 | 1.7 | 4.3 | 0.00 | 1.57 | 0.00 | 100 | 1014.4 |
| 20260502102203 | 53 | 350 | 1.7 | 4.3 | 0.00 | 1.57 | 0.00 | 100 | 1014.4 |
| 20260502102103 | 53 | 358 | 0.9 | 3.5 | 0.00 | 1.58 | 0.00 | 100 | 1014.3 |
| 20260502102002 | 53 | 358 | 0.9 | 3.5 | 0.00 | 1.58 | 0.00 | 100 | 1014.4 |
| 20260502101902 | 53 | 0 | 0.9 | 3.5 | 0.00 | 1.60 | 0.00 | 100 | 1014.5 |
| 20260502101802 | 53 | 0 | 1.7 | 3.5 | 0.00 | 1.60 | 0.00 | 100 | 1014.4 |
| 20260502101703 | 53 | 348 | 1.7 | 2.6 | 0.00 | 1.60 | 0.00 | 100 | 1014.4 |
| 20260502101604 | 53 | 0 | 0.9 | 2.6 | 0.00 | 1.61 | 0.00 | 100 | 1014.4 |
| 20260502101504 | 53 | 350 | 0.0 | 3.5 | 0.00 | 1.61 | 0.00 | 100 | 1014.4 |
| 20260502101403 | 53 | 354 | 0.0 | 3.5 | 0.00 | 1.61 | 0.00 | 100 | 1014.3 |
| 20260502101302 | 53 | 354 | 0.0 | 3.5 | 0.00 | 1.62 | 0.00 | 100 | 1014.3 |
| 20260502101203 | 53 | 354 | 0.9 | 3.5 | 0.00 | 1.63 | 0.00 | 100 | 1014.4 |
| 20260502101103 | 53 | 354 | 0.9 | 3.5 | 0.00 | 1.63 | 0.00 | 100 | 1014.3 |
| 20260502101002 | 53 | 0 | 0.9 | 3.5 | 0.00 | 1.64 | 0.00 | 100 | 1014.2 |
| 20260502100903 | 53 | 0 | 1.7 | 3.5 | 0.00 | 1.64 | 0.00 | 100 | 1014.2 |
| 20260502100803 | 53 | 0 | 0.9 | 3.5 | 0.00 | 1.64 | 0.00 | 100 | 1014.2 |
| 20260502100703 | 53 | 334 | 0.9 | 3.5 | 0.00 | 1.65 | 0.00 | 100 | 1014.2 |
| 20260502100603 | 53 | 334 | 1.7 | 3.5 | 0.00 | 1.65 | 0.00 | 100 | 1014.2 |
| 20260502100502 | 53 | 0 | 0.9 | 3.5 | 0.00 | 1.66 | 0.00 | 100 | 1014.2 |
| 20260502100403 | 53 | 0 | 0.9 | 3.5 | 0.00 | 1.66 | 0.00 | 100 | 1014.2 |
| 20260502100302 | 53 | 0 | 0.9 | 3.5 | 0.00 | 1.67 | 0.00 | 100 | 1014.1 |
| 20260502100204 | 53 | 0 | 0.9 | 3.5 | 0.00 | 1.67 | 0.00 | 100 | 1014.1 |
| 20260502091503 | 53 | 14 | 0.9 | 2.6 | 0.00 | 2.02 | 0.00 | 100 | 1013.3 |
| 20260502091404 | 53 | 14 | 0.9 | 2.6 | 0.00 | 2.05 | 0.00 | 100 | 1013.2 |
| 20260502091302 | 53 | 48 | 0.9 | 2.6 | 0.00 | 2.06 | 0.00 | 100 | 1013.1 |
| 20260502091203 | 53 | 44 | 0.9 | 2.6 | 0.00 | 2.08 | 0.00 | 100 | 1013.1 |
| 20260502091102 | 53 | 44 | 0.9 | 2.6 | 0.00 | 2.09 | 0.00 | 100 | 1013.0 |
| 20260502091003 | 53 | 39 | 0.9 | 2.6 | 0.00 | 2.11 | 0.00 | 100 | 1013.1 |
| 20260502090903 | 53 | 38 | 0.9 | 2.6 | 0.00 | 2.12 | 0.00 | 100 | 1013.1 |
| 20260502090803 | 53 | 37 | 0.9 | 2.6 | 0.00 | 2.16 | 0.00 | 100 | 1013.1 |
| 20260502090704 | 54 | 21 | 0.0 | 2.6 | 0.00 | 2.19 | 0.00 | 100 | 1013.1 |
| 20260502090602 | 54 | 23 | 0.9 | 2.6 | 0.00 | 2.19 | 0.00 | 100 | 1013.0 |
| 20260502090503 | 54 | 23 | 0.9 | 2.6 | 0.00 | 2.19 | 0.00 | 100 | 1013.0 |
| 20260502090403 | 54 | 24 | 0.9 | 2.6 | 0.00 | 2.19 | 0.00 | 100 | 1013.1 |
| 20260502090302 | 54 | 24 | 1.7 | 2.6 | 0.00 | 2.19 | 0.00 | 100 | 1013.1 |
| 20260502090202 | 54 | 24 | 0.9 | 2.6 | 0.00 | 2.19 | 0.00 | 100 | 1013.1 |
| 20260502071503 | 55 | 20 | 1.7 | 4.3 | 0.00 | 3.48 | 0.00 | 100 | 1013.3 |
| 20260502071403 | 55 | 92 | 1.7 | 4.3 | 0.00 | 3.48 | 0.00 | 100 | 1013.2 |
| 20260502071304 | 55 | 41 | 1.7 | 4.3 | 0.00 | 3.48 | 0.00 | 100 | 1013.2 |
| 20260502071203 | 55 | 66 | 1.7 | 4.3 | 0.00 | 3.48 | 0.00 | 100 | 1013.1 |
| 20260502071103 | 55 | 89 | 1.7 | 4.3 | 0.00 | 3.48 | 0.00 | 100 | 1013.2 |
| 20260502071005 | 55 | 32 | 1.7 | 4.3 | 0.00 | 3.48 | 0.00 | 100 | 1013.2 |
| 20260502070902 | 55 | 61 | 1.7 | 5.2 | 0.00 | 3.48 | 0.00 | 100 | 1013.2 |
| 20260502070802 | 55 | 31 | 2.6 | 5.2 | 0.00 | 3.48 | 0.00 | 100 | 1013.2 |
| 20260502070703 | 55 | 102 | 1.7 | 5.2 | 0.00 | 3.48 | 0.00 | 100 | 1013.1 |
| 20260502070603 | 55 | 75 | 1.7 | 5.2 | 0.00 | 3.48 | 0.00 | 100 | 1013.1 |
| 20260502070504 | 55 | 35 | 1.7 | 5.2 | 0.00 | 3.48 | 0.00 | 100 | 1013.1 |
| 20260502070402 | 55 | 83 | 1.7 | 5.2 | 0.00 | 3.48 | 0.00 | 100 | 1013.1 |
| 20260502070303 | 55 | 3 | 1.7 | 7.8 | 0.00 | 3.48 | 0.00 | 100 | 1013.0 |
| 20260502070203 | 55 | 37 | 3.5 | 7.8 | 0.00 | 3.48 | 0.00 | 100 | 1013.0 |
| 20260502070104 | 55 | 25 | 2.6 | 7.8 | 0.00 | 3.48 | 0.00 | 100 | 1013.1 |
| 20260502070002 | 55 | 25 | 1.7 | 7.8 | 0.00 | 3.48 | 0.00 | 100 | 1013.1 |
| 20260502065903 | 55 | 63 | 1.7 | 7.8 | 0.00 | 3.48 | 0.00 | 100 | 1013.1 |
| 20260502065803 | 55 | 307 | 1.7 | 7.8 | 0.00 | 3.48 | 0.00 | 100 | 1013.0 |
| 20260502065703 | 55 | 55 | 1.7 | 7.8 | 0.00 | 3.48 | 0.00 | 100 | 1013.1 |
| 20260502065602 | 55 | 59 | 1.7 | 7.8 | 0.00 | 3.48 | 0.00 | 100 | 1013.0 |
| 20260502065503 | 55 | 72 | 2.6 | 7.8 | 0.00 | 3.48 | 0.00 | 100 | 1013.0 |
| 20260502065403 | 55 | 38 | 2.6 | 7.8 | 0.00 | 3.48 | 0.00 | 100 | 1012.9 |
| 20260502065305 | 55 | 76 | 3.5 | 7.8 | 0.00 | 3.48 | 0.00 | 100 | 1012.9 |
| 20260502065201 | 55 | 103 | 3.5 | 7.8 | 0.00 | 3.48 | 0.00 | 100 | 1012.9 |
| 20260502065104 | 55 | 32 | 2.6 | 7.8 | 0.00 | 3.48 | 0.00 | 100 | 1012.8 |
| 20260502065003 | 55 | 47 | 2.6 | 7.8 | 0.00 | 3.48 | 0.00 | 100 | 1012.8 |
| 20260502064902 | 55 | 90 | 3.5 | 7.8 | 0.00 | 3.48 | 0.00 | 100 | 1012.9 |
| 20260502064804 | 55 | 85 | 3.5 | 7.8 | 0.00 | 3.48 | 0.00 | 100 | 1012.8 |
| 20260502064702 | 55 | 25 | 3.5 | 6.1 | 0.00 | 3.48 | 0.00 | 100 | 1012.8 |
| 20260502064603 | 55 | 72 | 2.6 | 4.3 | 0.00 | 3.48 | 0.00 | 100 | 1012.9 |
| 20260502064454 | 55 | 83 | 2.6 | 6.1 | 0.00 | 3.48 | 0.00 | 100 | 1012.9 |
| 20260502064331 | 55 | 90 | 1.7 | 6.1 | 0.00 | 3.48 | 0.00 | 100 | 1012.9 |
| 20260502064232 | 55 | 71 | 1.7 | 6.1 | 0.00 | 3.48 | 0.00 | 100 | 1012.9 |
| 20260502064133 | 55 | 47 | 1.7 | 6.1 | 0.00 | 3.48 | 0.00 | 100 | 1012.9 |
| 20260502064031 | 55 | 11 | 1.7 | 6.1 | 0.00 | 3.48 | 0.00 | 100 | 1013.0 |
| 20260502063932 | 55 | 87 | 2.6 | 6.1 | 0.00 | 3.48 | 0.00 | 100 | 1013.0 |
| 20260502063832 | 55 | 355 | 3.5 | 6.1 | 0.00 | 3.49 | 0.00 | 100 | 1012.9 |
| 20260502063732 | 55 | 62 | 3.5 | 6.1 | 0.00 | 3.49 | 0.00 | 100 | 1013.0 |
| 20260502063633 | 55 | 83 | 2.6 | 6.1 | 0.00 | 3.49 | 0.00 | 100 | 1013.0 |
| 20260502063532 | 55 | 0 | 1.7 | 6.1 | 0.00 | 3.49 | 0.00 | 100 | 1013.0 |
| 20260502063431 | 55 | 66 | 1.7 | 6.1 | 0.00 | 3.49 | 0.00 | 100 | 1013.0 |
| 20260502063330 | 55 | 111 | 1.7 | 6.1 | 0.00 | 3.49 | 0.00 | 100 | 1013.0 |
| 20260502063222 | 55 | 39 | 2.6 | 6.1 | 0.00 | 3.49 | 0.00 | 100 | 1012.9 |
| 20260502063119 | 55 | 0 | 2.6 | 6.1 | 0.00 | 3.49 | 0.00 | 100 | 1012.9 |
| 20260502063019 | 55 | 16 | 3.5 | 4.3 | 0.00 | 3.49 | 0.00 | 100 | 1012.9 |
| 20260502062919 | 0 | 25 | 4.3 | 4.3 | 0.00 | 3.49 | 0.00 | 1012.9 | |
| 20260502062819 | 55 | 49 | 1.7 | 2.6 | 0.00 | 3.49 | 0.00 | 100 | 1012.9 |
| 20260502062718 | 55 | 49 | 1.7 | 2.6 | 0.00 | 3.49 | 0.00 | 100 | 1012.8 |
| 20260502062618 | 55 | 49 | 1.7 | 2.6 | 0.00 | 3.49 | 0.00 | 100 | 1012.8 |
| 20260502062517 | 55 | 49 | 1.7 | 4.3 | 0.00 | 3.49 | 0.00 | 100 | 1012.8 |
| 20260502062417 | 55 | 49 | 1.7 | 5.2 | 0.00 | 3.50 | 0.00 | 100 | 1012.9 |
| 20260502062317 | 55 | 49 | 1.7 | 5.2 | 0.00 | 3.50 | 0.00 | 100 | 1012.8 |
| 20260502062216 | 55 | 49 | 1.7 | 5.2 | 0.00 | 3.50 | 0.00 | 100 | 1012.8 |
| 20260502062116 | 55 | 49 | 1.7 | 5.2 | 0.00 | 3.50 | 0.00 | 100 | 1012.8 |
| 20260502062005 | 55 | 49 | 1.7 | 6.1 | 0.00 | 3.51 | 0.00 | 100 | 1012.8 |
| 20260502061902 | 55 | 175 | 1.7 | 7.8 | 0.00 | 3.51 | 0.00 | 100 | 1012.7 |
| 20260502061803 | 55 | 37 | 1.7 | 7.8 | 0.00 | 3.52 | 0.00 | 100 | 1012.7 |
| 20260502061702 | 55 | 49 | 1.7 | 7.8 | 0.00 | 3.52 | 0.00 | 100 | 1012.8 |
| 20260502061602 | 55 | 72 | 2.6 | 7.8 | 0.00 | 3.52 | 0.00 | 100 | 1012.7 |
| 20260502061503 | 55 | 41 | 2.6 | 7.8 | 0.00 | 3.52 | 0.00 | 100 | 1012.8 |
| 20260502061402 | 55 | 16 | 1.7 | 7.8 | 0.00 | 3.52 | 0.00 | 100 | 1012.8 |
| 20260502061303 | 55 | 79 | 2.6 | 11.3 | 0.00 | 3.53 | 0.00 | 100 | 1012.7 |
| 20260502061202 | 55 | 0 | 3.5 | 11.3 | 0.00 | 3.53 | 0.00 | 100 | 1012.8 |
| 20260502061103 | 55 | 65 | 3.5 | 11.3 | 0.00 | 3.54 | 0.00 | 100 | 1012.7 |
| 20260502061003 | 55 | 330 | 3.5 | 11.3 | 0.00 | 3.54 | 0.00 | 100 | 1012.7 |
| 20260502060903 | 55 | 11 | 2.6 | 11.3 | 0.00 | 3.54 | 0.00 | 100 | 1012.7 |
| 20260502060802 | 56 | 47 | 2.6 | 11.3 | 0.00 | 3.54 | 0.00 | 100 | 1012.8 |
| 20260502060703 | 56 | 52 | 1.7 | 11.3 | 0.00 | 3.54 | 0.00 | 100 | 1012.8 |
| 20260502060604 | 56 | 319 | 1.7 | 11.3 | 0.00 | 3.55 | 0.00 | 100 | 1012.8 |
| 20260502060502 | 56 | 44 | 3.5 | 11.3 | 0.00 | 3.55 | 0.00 | 100 | 1012.7 |
| 20260502060404 | 56 | 0 | 3.5 | 11.3 | 0.00 | 3.55 | 0.00 | 100 | 1012.8 |
| 20260502060304 | 56 | 44 | 1.7 | 9.6 | 0.00 | 3.55 | 0.00 | 100 | 1012.7 |
| 20260502060203 | 56 | 55 | 2.6 | 9.6 | 0.00 | 3.55 | 0.00 | 100 | 1012.7 |
| 20260502060005 | 56 | 80 | 3.5 | 7.8 | 0.00 | 3.55 | 0.00 | 100 | 1012.7 |
| 20260502055904 | 56 | 85 | 3.5 | 7.8 | 0.00 | 3.55 | 0.00 | 100 | 1012.7 |
| 20260502055803 | 56 | 31 | 1.7 | 6.1 | 0.00 | 3.55 | 0.00 | 100 | 1012.7 |
| 20260502055703 | 55 | 96 | 3.5 | 7.8 | 0.00 | 3.55 | 0.00 | 100 | 1012.7 |
| 20260502055603 | 55 | 82 | 2.6 | 7.8 | 0.00 | 3.55 | 0.00 | 100 | 1012.7 |
| 20260502055504 | 55 | 56 | 2.6 | 7.8 | 0.00 | 3.55 | 0.00 | 100 | 1012.8 |
| 20260502055404 | 55 | 30 | 1.7 | 7.8 | 0.00 | 3.55 | 0.00 | 100 | 1012.8 |
| 20260502055305 | 55 | 73 | 2.6 | 7.8 | 0.00 | 3.55 | 0.00 | 100 | 1012.9 |
| 20260502055202 | 55 | 79 | 2.6 | 7.8 | 0.00 | 3.55 | 0.00 | 100 | 1012.9 |
| 20260502055103 | 56 | 28 | 2.6 | 7.8 | 0.00 | 3.55 | 0.00 | 100 | 1012.9 |
| 20260502055003 | 55 | 114 | 2.6 | 7.8 | 0.00 | 3.55 | 0.00 | 100 | 1012.9 |
| 20260502054903 | 56 | 63 | 3.5 | 7.8 | 0.00 | 3.55 | 0.00 | 100 | 1013.0 |
| 20260502054803 | 56 | 54 | 3.5 | 7.8 | 0.00 | 3.55 | 0.00 | 100 | 1013.0 |
| 20260502054702 | 56 | 4 | 2.6 | 5.2 | 0.00 | 3.55 | 0.00 | 100 | 1013.0 |
| 20260502054604 | 56 | 0 | 0.9 | 5.2 | 0.00 | 3.55 | 0.00 | 100 | 1013.0 |
| 20260502054503 | 56 | 344 | 1.7 | 5.2 | 0.00 | 3.55 | 0.00 | 100 | 1013.0 |
| 20260502054333 | 56 | 344 | 1.7 | 5.2 | 0.00 | 3.55 | 0.00 | 100 | 1013.0 |
| 20260502054230 | 56 | 49 | 1.7 | 5.2 | 0.00 | 3.56 | 0.00 | 100 | 1013.0 |
| 20260502054131 | 56 | 38 | 2.6 | 5.2 | 0.00 | 3.56 | 0.00 | 100 | 1013.0 |
| 20260502054031 | 56 | 39 | 3.5 | 5.2 | 0.00 | 3.56 | 0.00 | 100 | 1012.9 |
| 20260502053931 | 56 | 109 | 2.6 | 7.8 | 0.00 | 3.56 | 0.00 | 100 | 1013.0 |
| 20260502053830 | 56 | 93 | 2.6 | 7.8 | 0.00 | 3.56 | 0.00 | 100 | 1012.9 |
| 20260502053717 | 56 | 59 | 2.6 | 7.8 | 0.00 | 3.56 | 0.00 | 100 | 1013.0 |
| 20260502053616 | 56 | 245 | 2.6 | 7.8 | 0.00 | 3.57 | 0.00 | 100 | 1013.0 |
| 20260502053515 | 56 | 30 | 3.5 | 8.7 | 0.00 | 3.58 | 0.00 | 100 | 1013.0 |
| 20260502053416 | 55 | 1 | 2.6 | 8.7 | 0.00 | 3.58 | 0.00 | 100 | 1013.1 |
| 20260502053315 | 55 | 82 | 2.6 | 8.7 | 0.00 | 3.59 | 0.00 | 100 | 1013.1 |
| 20260502053215 | 55 | 337 | 2.6 | 8.7 | 0.00 | 3.60 | 0.00 | 100 | 1013.1 |
| 20260502053114 | 55 | 96 | 2.6 | 8.7 | 0.00 | 3.60 | 0.00 | 100 | 1013.0 |
| 20260502053016 | 56 | 324 | 3.5 | 8.7 | 0.00 | 3.60 | 0.00 | 100 | 1013.1 |
| 20260502052915 | 56 | 92 | 3.5 | 8.7 | 0.00 | 3.61 | 0.00 | 100 | 1013.0 |
| 20260502052815 | 56 | 303 | 3.5 | 8.7 | 0.00 | 3.62 | 0.00 | 100 | 1013.2 |
| 20260502052714 | 56 | 0 | 3.5 | 8.7 | 0.00 | 3.62 | 0.00 | 100 | 1013.1 |
| 20260502052615 | 56 | 21 | 3.5 | 8.7 | 0.00 | 3.63 | 0.00 | 100 | 1013.1 |
| 20260502052514 | 56 | 107 | 2.6 | 8.7 | 0.00 | 3.63 | 0.00 | 100 | 1013.3 |
| 20260502052415 | 56 | 76 | 1.7 | 9.6 | 0.00 | 3.64 | 0.00 | 100 | 1013.2 |
| 20260502052316 | 56 | 3 | 2.6 | 9.6 | 0.00 | 3.65 | 0.00 | 100 | 1013.2 |
| 20260502052214 | 56 | 103 | 1.7 | 9.6 | 0.00 | 3.65 | 0.00 | 100 | 1013.1 |
| 20260502052115 | 56 | 11 | 1.7 | 9.6 | 0.00 | 3.65 | 0.00 | 100 | 1013.1 |
| 20260502052015 | 56 | 69 | 3.5 | 9.6 | 0.00 | 3.66 | 0.00 | 100 | 1013.1 |
| 20260502051915 | 56 | 49 | 4.3 | 9.6 | 0.00 | 3.66 | 0.00 | 100 | 1013.1 |
| 20260502051815 | 56 | 69 | 3.5 | 9.6 | 0.00 | 3.67 | 0.00 | 100 | 1013.1 |
| 20260502051714 | 56 | 75 | 2.6 | 9.6 | 0.00 | 3.68 | 0.00 | 100 | 1013.0 |
| 20260502051616 | 56 | 55 | 3.5 | 9.6 | 0.00 | 3.68 | 0.00 | 100 | 1013.1 |
| 20260502051513 | 56 | 92 | 2.6 | 9.6 | 0.00 | 3.68 | 0.00 | 100 | 1013.1 |
| 20260502051415 | 56 | 354 | 2.6 | 7.8 | 0.00 | 3.68 | 0.00 | 100 | 1013.1 |
| 20260502051315 | 56 | 102 | 2.6 | 7.8 | 0.00 | 3.68 | 0.00 | 100 | 1013.0 |
| 20260502051214 | 56 | 25 | 3.5 | 7.8 | 0.00 | 3.68 | 0.00 | 100 | 1013.1 |
| 20260502051114 | 56 | 4 | 3.5 | 7.8 | 0.00 | 3.68 | 0.00 | 100 | 1013.2 |
| 20260502051016 | 56 | 123 | 2.6 | 8.7 | 0.00 | 3.68 | 0.00 | 100 | 1013.1 |
| 20260502050916 | 56 | 293 | 2.6 | 8.7 | 0.00 | 3.68 | 0.00 | 100 | 1013.2 |
| 20260502050815 | 56 | 39 | 3.5 | 9.6 | 0.00 | 3.68 | 0.00 | 100 | 1013.2 |
| 20260502050714 | 56 | 11 | 2.6 | 10.4 | 0.00 | 3.68 | 0.00 | 100 | 1013.2 |
| 20260502050615 | 56 | 66 | 3.5 | 10.4 | 0.00 | 3.68 | 0.00 | 100 | 1013.1 |
| 20260502050516 | 56 | 355 | 3.5 | 10.4 | 0.00 | 3.68 | 0.00 | 100 | 1013.2 |
| 20260502050415 | 56 | 68 | 1.7 | 10.4 | 0.00 | 3.68 | 0.00 | 100 | 1013.3 |
| 20260502050314 | 56 | 49 | 1.7 | 10.4 | 0.00 | 3.68 | 0.00 | 100 | 1013.3 |
| 20260502050215 | 56 | 45 | 2.6 | 10.4 | 0.00 | 3.68 | 0.00 | 100 | 1013.3 |
| 20260502050114 | 56 | 1 | 3.5 | 10.4 | 0.00 | 3.68 | 0.00 | 100 | 1013.2 |
| 20260502050016 | 56 | 21 | 3.5 | 10.4 | 0.00 | 3.68 | 0.00 | 100 | 1013.2 |
| 20260502045915 | 56 | 61 | 2.6 | 10.4 | 0.00 | 3.68 | 3.68 | 100 | 1013.2 |
| 20260502045816 | 56 | 13 | 5.2 | 10.4 | 0.00 | 3.68 | 3.68 | 100 | 1013.1 |
| 20260502045715 | 56 | 27 | 3.5 | 10.4 | 0.00 | 3.68 | 3.68 | 100 | 1013.0 |
| 20260502045616 | 56 | 305 | 2.6 | 11.3 | 0.00 | 3.68 | 3.68 | 100 | 1013.1 |
| 20260502045515 | 56 | 56 | 2.6 | 11.3 | 0.00 | 3.68 | 3.68 | 100 | 1013.0 |
| 20260502045414 | 56 | 93 | 3.5 | 11.3 | 0.00 | 3.68 | 3.68 | 100 | 1013.0 |
| 20260502045314 | 56 | 111 | 3.5 | 11.3 | 0.00 | 3.68 | 3.68 | 100 | 1013.0 |
| 20260502045214 | 56 | 56 | 2.6 | 11.3 | 0.00 | 3.68 | 3.68 | 100 | 1013.0 |
| 20260502045114 | 56 | 89 | 2.6 | 11.3 | 0.00 | 3.68 | 3.68 | 100 | 1013.0 |
| 20260502045014 | 56 | 54 | 2.6 | 11.3 | 0.00 | 3.68 | 3.68 | 100 | 1013.0 |
| 20260502044914 | 56 | 113 | 3.5 | 11.3 | 0.00 | 3.68 | 3.68 | 100 | 1013.0 |
| 20260502044813 | 56 | 65 | 4.3 | 11.3 | 0.00 | 3.68 | 3.68 | 100 | 1013.0 |
| 20260502044713 | 56 | 65 | 4.3 | 11.3 | 0.00 | 3.68 | 3.68 | 100 | 1013.0 |
| 20260502044614 | 56 | 62 | 2.6 | 10.4 | 0.00 | 3.68 | 3.68 | 100 | 1013.0 |
| 20260502044515 | 56 | 41 | 2.6 | 10.4 | 0.00 | 3.68 | 3.68 | 100 | 1013.0 |
| 20260502044413 | 56 | 58 | 4.3 | 10.4 | 0.00 | 3.68 | 3.68 | 100 | 1013.0 |
| 20260502044314 | 56 | 16 | 5.2 | 10.4 | 0.00 | 3.68 | 3.68 | 100 | 1013.1 |
| 20260502044213 | 56 | 23 | 3.5 | 9.6 | 0.00 | 3.68 | 3.68 | 100 | 1013.1 |
| 20260502044111 | 56 | 30 | 3.5 | 9.6 | 0.00 | 3.68 | 3.68 | 100 | 1013.0 |
| 20260502044004 | 56 | 48 | 2.6 | 9.6 | 0.00 | 3.68 | 3.68 | 100 | 1013.1 |
| 20260502043904 | 56 | 65 | 2.6 | 9.6 | 0.00 | 3.68 | 3.68 | 100 | 1013.0 |
| 20260502043802 | 56 | 0 | 4.3 | 9.6 | 0.00 | 3.68 | 3.68 | 100 | 1013.1 |
| 20260502043702 | 56 | 38 | 4.3 | 9.6 | 0.00 | 3.68 | 3.68 | 100 | 1013.1 |
| 20260502043602 | 56 | 111 | 3.5 | 6.1 | 0.00 | 3.68 | 3.68 | 100 | 1013.1 |
| 20260502043502 | 56 | 13 | 1.7 | 4.3 | 0.00 | 3.68 | 3.68 | 100 | 1013.1 |
| 20260502043403 | 56 | 82 | 0.9 | 4.3 | 0.00 | 3.68 | 3.68 | 100 | 1013.2 |
| 20260502043304 | 56 | 69 | 1.7 | 6.1 | 0.00 | 3.68 | 3.68 | 100 | 1013.1 |
| 20260502043203 | 56 | 345 | 0.9 | 6.1 | 0.00 | 3.68 | 3.68 | 100 | 1013.1 |
| 20260502043103 | 56 | 353 | 1.7 | 6.1 | 0.00 | 3.68 | 3.68 | 100 | 1013.1 |
| 20260502043003 | 56 | 316 | 2.6 | 6.1 | 0.00 | 3.68 | 3.68 | 100 | 1013.1 |
| 20260502042904 | 56 | 75 | 2.6 | 6.1 | 0.00 | 3.68 | 3.68 | 100 | 1013.1 |
| 20260502042803 | 56 | 0 | 2.6 | 7.8 | 0.00 | 3.68 | 3.68 | 100 | 1013.1 |
| 20260502042703 | 56 | 331 | 2.6 | 7.8 | 0.00 | 3.68 | 3.68 | 100 | 1013.2 |
| 20260502042603 | 56 | 348 | 2.6 | 7.8 | 0.00 | 3.68 | 3.68 | 100 | 1013.1 |
| 20260502042504 | 56 | 87 | 2.6 | 7.8 | 0.00 | 3.68 | 3.68 | 100 | 1013.1 |
| 20260502042403 | 56 | 24 | 3.5 | 7.8 | 0.00 | 3.68 | 3.68 | 100 | 1013.2 |
| 20260502042305 | 56 | 55 | 2.6 | 7.8 | 0.00 | 3.68 | 3.68 | 100 | 1013.2 |
| 20260502042202 | 56 | 86 | 3.5 | 7.8 | 0.00 | 3.68 | 3.68 | 100 | 1013.2 |
| 20260502042103 | 56 | 38 | 3.5 | 7.8 | 0.00 | 3.68 | 3.68 | 100 | 1013.3 |
| 20260502042003 | 56 | 55 | 4.3 | 7.8 | 0.00 | 3.68 | 3.68 | 100 | 1013.2 |
| 20260502041903 | 56 | 69 | 4.3 | 7.8 | 0.00 | 3.68 | 3.68 | 100 | 1013.2 |
| 20260502041804 | 56 | 39 | 1.7 | 6.1 | 0.00 | 3.68 | 3.68 | 100 | 1013.1 |
| 20260502041701 | 56 | 18 | 1.7 | 6.1 | 0.00 | 3.68 | 3.68 | 100 | 1013.1 |
| 20260502041602 | 56 | 290 | 2.6 | 6.1 | 0.00 | 3.68 | 3.68 | 100 | 1013.0 |
| 20260502041502 | 56 | 350 | 1.7 | 6.1 | 0.00 | 3.68 | 3.68 | 100 | 1013.1 |
| 20260502041403 | 56 | 65 | 2.6 | 6.1 | 0.00 | 3.68 | 3.68 | 100 | 1013.1 |
| 20260502041302 | 56 | 254 | 2.6 | 6.1 | 0.00 | 3.68 | 3.68 | 100 | 1013.1 |
| 20260502041202 | 56 | 0 | 1.7 | 5.2 | 0.00 | 3.68 | 3.68 | 100 | 1013.0 |
| 20260502041102 | 56 | 11 | 2.6 | 5.2 | 0.00 | 3.68 | 3.68 | 100 | 1012.8 |
| 20260502041002 | 56 | 289 | 3.5 | 5.2 | 0.00 | 3.68 | 3.68 | 100 | 1012.8 |
| 20260502040902 | 56 | 0 | 2.6 | 5.2 | 0.00 | 3.68 | 3.68 | 100 | 1012.8 |
| 20260502040803 | 56 | 79 | 1.7 | 6.1 | 0.00 | 3.68 | 3.68 | 100 | 1012.8 |
| 20260502040702 | 56 | 0 | 1.7 | 6.1 | 0.00 | 3.68 | 3.68 | 100 | 1012.8 |
| 20260502040602 | 56 | 49 | 2.6 | 6.1 | 0.00 | 3.68 | 3.68 | 100 | 1012.9 |
| 20260502040502 | 56 | 14 | 2.6 | 6.1 | 0.00 | 3.68 | 3.68 | 100 | 1012.8 |
| 20260502040402 | 56 | 350 | 3.5 | 6.1 | 0.00 | 3.68 | 3.68 | 100 | 1012.9 |
| 20260502040304 | 56 | 0 | 2.6 | 7.8 | 0.00 | 3.68 | 3.68 | 100 | 1012.9 |
| 20260502040203 | 56 | 0 | 2.6 | 7.8 | 0.00 | 3.68 | 3.68 | 100 | 1012.9 |
| 20260502040103 | 56 | 8 | 3.5 | 7.8 | 0.00 | 3.68 | 3.68 | 100 | 1012.9 |
| 20260502040002 | 56 | 0 | 3.5 | 7.8 | 0.00 | 3.68 | 3.68 | 100 | 1012.8 |
| 20260502035904 | 56 | 37 | 3.5 | 7.8 | 0.00 | 3.68 | 3.68 | 100 | 1012.8 |
| 20260502035802 | 56 | 313 | 3.5 | 7.8 | 0.00 | 3.68 | 3.68 | 100 | 1012.8 |
| 20260502035702 | 56 | 0 | 4.3 | 7.8 | 0.00 | 3.68 | 3.68 | 100 | 1012.7 |
| 20260502035604 | 56 | 20 | 1.7 | 7.8 | 0.00 | 3.68 | 3.68 | 100 | 1012.7 |
| 20260502035505 | 56 | 28 | 2.6 | 7.8 | 0.00 | 3.68 | 3.68 | 100 | 1012.7 |
| 20260502035403 | 56 | 0 | 3.5 | 7.8 | 0.00 | 3.68 | 3.68 | 100 | 1012.7 |
| 20260502035306 | 56 | 21 | 2.6 | 7.8 | 0.00 | 3.68 | 3.68 | 100 | 1012.7 |
| 20260502035203 | 56 | 351 | 2.6 | 7.8 | 0.00 | 3.68 | 3.68 | 100 | 1012.7 |
| 20260502035102 | 56 | 357 | 4.3 | 7.8 | 0.00 | 3.68 | 3.68 | 100 | 1012.6 |
| 20260502035005 | 56 | 35 | 4.3 | 7.8 | 0.00 | 3.68 | 3.68 | 100 | 1012.6 |
| 20260502034903 | 56 | 330 | 3.5 | 7.8 | 0.00 | 3.68 | 3.68 | 100 | 1012.6 |
| 20260502034802 | 56 | 340 | 1.7 | 5.2 | 0.00 | 3.68 | 3.68 | 100 | 1012.7 |
| 20260502034701 | 56 | 330 | 1.7 | 6.1 | 0.00 | 3.68 | 3.68 | 100 | 1012.6 |
| 20260502034603 | 56 | 343 | 2.6 | 6.1 | 0.00 | 3.68 | 3.68 | 100 | 1012.6 |
| 20260502034504 | 56 | 317 | 2.6 | 6.1 | 0.00 | 3.68 | 3.68 | 100 | 1012.6 |
| 20260502034402 | 56 | 329 | 1.7 | 8.7 | 0.00 | 3.68 | 3.68 | 100 | 1012.6 |
| 20260502034304 | 56 | 306 | 2.6 | 8.7 | 0.00 | 3.68 | 3.68 | 100 | 1012.5 |
| 20260502034203 | 56 | 306 | 2.6 | 8.7 | 0.00 | 3.68 | 3.68 | 100 | 1012.5 |
| 20260502034104 | 56 | 306 | 2.6 | 8.7 | 0.00 | 3.68 | 3.68 | 100 | 1012.5 |
| 20260502034005 | 56 | 306 | 2.6 | 8.7 | 0.00 | 3.68 | 3.68 | 100 | 1012.5 |
| 20260502033903 | 56 | 0 | 2.6 | 8.7 | 0.00 | 3.68 | 3.68 | 100 | 1012.5 |
| 20260502033802 | 56 | 20 | 2.6 | 8.7 | 0.00 | 3.68 | 3.68 | 100 | 1012.5 |
| 20260502033702 | 56 | 337 | 2.6 | 8.7 | 0.01 | 3.68 | 3.68 | 100 | 1012.5 |
| 20260502033604 | 56 | 4 | 4.3 | 8.7 | 0.01 | 3.68 | 3.68 | 100 | 1012.3 |
| 20260502033504 | 56 | 45 | 4.3 | 8.7 | 0.01 | 3.68 | 3.68 | 100 | 1012.4 |
| 20260502033402 | 56 | 20 | 3.5 | 4.3 | 0.01 | 3.68 | 3.68 | 100 | 1012.3 |
| 20260502033302 | 56 | 340 | 3.5 | 3.5 | 0.01 | 3.68 | 3.68 | 100 | 1012.4 |
| 20260502033203 | 0 | 0.0 | 0.0 | 0.01 | 3.68 | 3.68 | 1012.4 | ||
| 20260502033103 | 0 | 0.0 | 0.0 | 0.01 | 3.68 | 3.68 | 1012.4 | ||
| 20260502033003 | 0 | 0.0 | 0.0 | 0.01 | 3.68 | 3.68 | 1012.4 | ||
| 20260502032903 | 0 | 0.0 | 0.0 | 0.01 | 3.68 | 3.68 | 1012.4 | ||
| 20260502032803 | 0 | 56 | 3.5 | 1.7 | 0.01 | 3.68 | 3.68 | 1012.5 | |
| 20260502032703 | 56 | 56 | 3.5 | 8.7 | 0.01 | 3.68 | 3.68 | 100 | 1012.5 |
| 20260502032603 | 56 | 56 | 3.5 | 8.7 | 0.01 | 3.68 | 3.68 | 100 | 1012.4 |
| 20260502032504 | 56 | 56 | 3.5 | 8.7 | 0.01 | 3.68 | 3.68 | 100 | 1012.4 |
| 20260502032403 | 56 | 56 | 3.5 | 8.7 | 0.01 | 3.68 | 3.68 | 100 | 1012.2 |
| 20260502032305 | 56 | 56 | 3.5 | 9.6 | 0.01 | 3.68 | 3.68 | 100 | 1012.1 |
| 20260502032203 | 56 | 56 | 3.5 | 10.4 | 0.01 | 3.68 | 3.68 | 100 | 1012.1 |
| 20260502032103 | 56 | 56 | 3.5 | 10.4 | 0.01 | 3.68 | 3.68 | 100 | 1012.0 |
| 20260502032003 | 56 | 56 | 3.5 | 10.4 | 0.01 | 3.68 | 3.68 | 100 | 1011.9 |
| 20260502031903 | 56 | 56 | 3.5 | 10.4 | 0.01 | 3.68 | 3.68 | 100 | 1011.8 |
| 20260502031802 | 56 | 49 | 4.3 | 10.4 | 0.01 | 3.68 | 3.68 | 100 | 1011.7 |
| 20260502031703 | 56 | 116 | 5.2 | 10.4 | 0.01 | 3.68 | 3.68 | 100 | 1011.6 |
| 20260502031603 | 56 | 116 | 5.2 | 10.4 | 0.01 | 3.68 | 3.68 | 100 | 1011.6 |
| 20260502031504 | 56 | 116 | 5.2 | 10.4 | 0.02 | 3.68 | 3.68 | 100 | 1011.6 |
| 20260502031404 | 56 | 44 | 5.2 | 10.4 | 0.02 | 3.68 | 3.68 | 100 | 1011.6 |
| 20260502031303 | 56 | 25 | 5.2 | 10.4 | 0.02 | 3.68 | 3.68 | 100 | 1011.7 |
| 20260502031202 | 56 | 8 | 4.3 | 9.6 | 0.02 | 3.68 | 3.68 | 100 | 1011.6 |
| 20260502031103 | 56 | 61 | 4.3 | 9.6 | 0.02 | 3.68 | 3.68 | 100 | 1011.7 |
| 20260502031003 | 56 | 7 | 4.3 | 8.7 | 0.02 | 3.68 | 3.68 | 100 | 1011.7 |
| 20260502030904 | 56 | 31 | 6.1 | 8.7 | 0.02 | 3.68 | 3.68 | 100 | 1011.7 |
| 20260502030803 | 56 | 247 | 2.6 | 4.3 | 0.02 | 3.68 | 3.68 | 100 | 1011.7 |
| 20260502030703 | 56 | 247 | 2.6 | 5.2 | 0.02 | 3.68 | 3.68 | 100 | 1011.7 |
| 20260502030602 | 56 | 247 | 2.6 | 5.2 | 0.02 | 3.68 | 3.68 | 100 | 1011.8 |
| 20260502030504 | 56 | 247 | 2.6 | 5.2 | 0.02 | 3.68 | 3.68 | 100 | 1011.8 |
| 20260502030402 | 56 | 247 | 2.6 | 6.1 | 0.02 | 3.68 | 3.68 | 100 | 1011.8 |
| 20260502030303 | 56 | 247 | 2.6 | 6.1 | 0.02 | 3.68 | 3.68 | 100 | 1011.8 |
| 20260502030203 | 56 | 247 | 2.6 | 6.1 | 0.03 | 3.68 | 3.68 | 100 | 1011.7 |
| 20260502030004 | 56 | 42 | 2.6 | 6.1 | 0.03 | 3.68 | 3.68 | 100 | 1011.8 |
| 20260502025901 | 56 | 28 | 3.5 | 6.1 | 0.03 | 3.68 | 3.68 | 100 | 1011.9 |
| 20260502025803 | 56 | 17 | 2.6 | 6.1 | 0.03 | 3.68 | 3.68 | 100 | 1011.9 |
| 20260502025703 | 56 | 7 | 2.6 | 6.1 | 0.03 | 3.68 | 3.68 | 100 | 1011.9 |
| 20260502025603 | 56 | 341 | 4.3 | 6.1 | 0.03 | 3.68 | 3.68 | 100 | 1012.0 |
| 20260502025503 | 56 | 354 | 3.5 | 6.1 | 0.04 | 3.68 | 3.68 | 100 | 1012.0 |
| 20260502025402 | 56 | 55 | 2.6 | 6.1 | 0.04 | 3.68 | 3.68 | 100 | 1011.9 |
| 20260502025306 | 56 | 44 | 3.5 | 6.1 | 0.04 | 3.68 | 3.68 | 100 | 1011.9 |
| 20260502025203 | 56 | 3 | 3.5 | 6.1 | 0.04 | 3.68 | 3.68 | 100 | 1011.8 |
| 20260502025103 | 56 | 336 | 2.6 | 6.1 | 0.04 | 3.68 | 3.68 | 100 | 1011.8 |
| 20260502025003 | 56 | 0 | 1.7 | 6.1 | 0.04 | 3.68 | 3.68 | 100 | 1011.7 |
| 20260502024902 | 56 | 32 | 1.7 | 6.1 | 0.04 | 3.68 | 3.68 | 100 | 1011.7 |
| 20260502024803 | 56 | 61 | 1.7 | 7.8 | 0.04 | 3.68 | 3.68 | 100 | 1011.6 |
| 20260502024702 | 56 | 8 | 1.7 | 7.8 | 0.04 | 3.68 | 3.68 | 100 | 1011.6 |
| 20260502024602 | 56 | 42 | 1.7 | 7.8 | 0.05 | 3.68 | 3.68 | 100 | 1011.7 |
| 20260502024503 | 56 | 32 | 0.9 | 11.3 | 0.05 | 3.68 | 3.68 | 100 | 1011.6 |
| 20260502024402 | 56 | 102 | 3.5 | 11.3 | 0.05 | 3.68 | 3.68 | 100 | 1011.7 |
| 20260502024303 | 56 | 102 | 3.5 | 11.3 | 0.05 | 3.68 | 3.68 | 100 | 1011.5 |
| 20260502024204 | 56 | 102 | 3.5 | 11.3 | 0.05 | 3.68 | 3.68 | 100 | 1011.5 |
| 20260502024104 | 56 | 102 | 3.5 | 11.3 | 0.05 | 3.68 | 3.68 | 100 | 1011.6 |
| 20260502024004 | 56 | 102 | 3.5 | 11.3 | 0.05 | 3.68 | 3.68 | 100 | 1011.7 |
| 20260502023903 | 56 | 58 | 3.5 | 11.3 | 0.06 | 3.68 | 3.68 | 100 | 1011.7 |
| 20260502023802 | 56 | 71 | 3.5 | 11.3 | 0.06 | 3.67 | 3.67 | 100 | 1011.8 |
| 20260502023703 | 56 | 333 | 3.5 | 11.3 | 0.05 | 3.67 | 3.67 | 100 | 1011.8 |
| 20260502023602 | 56 | 49 | 4.3 | 11.3 | 0.05 | 3.67 | 3.67 | 100 | 1011.9 |
| 20260502023501 | 56 | 3 | 4.3 | 10.4 | 0.05 | 3.67 | 3.67 | 100 | 1012.0 |
| 20260502023403 | 56 | 321 | 2.6 | 10.4 | 0.05 | 3.67 | 3.67 | 100 | 1011.9 |
| 20260502023304 | 56 | 350 | 3.5 | 10.4 | 0.05 | 3.67 | 3.67 | 100 | 1012.0 |
| 20260502023203 | 56 | 17 | 5.2 | 10.4 | 0.05 | 3.67 | 3.67 | 100 | 1012.0 |
| 20260502023102 | 56 | 331 | 3.5 | 10.4 | 0.05 | 3.67 | 3.67 | 100 | 1011.9 |
| 20260502023004 | 0 | 18 | 1.7 | 1.7 | 0.06 | 3.67 | 3.67 | 1011.9 | |
| 20260502022903 | 0 | 0.0 | 0.0 | 0.06 | 3.67 | 3.67 | 1011.9 | ||
| 20260502022803 | 0 | 0.0 | 0.0 | 0.06 | 3.67 | 3.67 | 1011.7 | ||
| 20260502022703 | 0 | 0.0 | 0.0 | 0.06 | 3.67 | 3.67 | 1011.8 | ||
| 20260502022603 | 0 | 18 | 3.5 | 1.7 | 0.06 | 3.67 | 3.67 | 1011.8 | |
| 20260502022503 | 57 | 18 | 3.5 | 7.8 | 0.07 | 3.67 | 3.67 | 100 | 1011.9 |
| 20260502022403 | 57 | 18 | 3.5 | 7.8 | 0.07 | 3.67 | 3.67 | 100 | 1011.8 |
| 20260502022306 | 57 | 18 | 3.5 | 7.8 | 0.07 | 3.67 | 3.67 | 100 | 1011.7 |
| 20260502022202 | 57 | 18 | 3.5 | 7.8 | 0.07 | 3.67 | 3.67 | 100 | 1011.7 |
| 20260502022103 | 57 | 18 | 3.5 | 7.8 | 0.07 | 3.67 | 3.67 | 100 | 1011.5 |
| 20260502022003 | 57 | 18 | 3.5 | 7.8 | 0.07 | 3.67 | 3.67 | 100 | 1011.5 |
| 20260502021902 | 57 | 18 | 3.5 | 7.8 | 0.08 | 3.67 | 3.67 | 100 | 1011.5 |
| 20260502021802 | 57 | 18 | 3.5 | 7.8 | 0.08 | 3.67 | 3.67 | 100 | 1011.4 |
| 20260502021702 | 57 | 18 | 3.5 | 7.8 | 0.08 | 3.67 | 3.67 | 100 | 1011.3 |
| 20260502021556 | 57 | 18 | 2.6 | 7.8 | 0.08 | 3.66 | 3.66 | 100 | 1011.4 |
| 20260502021452 | 57 | 321 | 1.7 | 7.8 | 0.07 | 3.66 | 3.66 | 100 | 1011.3 |
| 20260502021351 | 57 | 299 | 3.5 | 7.8 | 0.07 | 3.66 | 3.66 | 100 | 1011.4 |
| 20260502021236 | 57 | 345 | 3.5 | 7.8 | 0.07 | 3.66 | 3.66 | 100 | 1011.3 |
| 20260502021134 | 57 | 331 | 1.7 | 6.1 | 0.08 | 3.66 | 3.66 | 100 | 1011.3 |
| 20260502021031 | 57 | 8 | 1.7 | 6.1 | 0.08 | 3.66 | 3.66 | 100 | 1011.3 |
| 20260502020932 | 57 | 320 | 2.6 | 6.1 | 0.08 | 3.66 | 3.66 | 100 | 1011.1 |
| 20260502020827 | 57 | 212 | 2.6 | 6.1 | 0.08 | 3.66 | 3.66 | 100 | 1011.0 |
| 20260502020715 | 57 | 94 | 3.5 | 6.1 | 0.08 | 3.66 | 3.66 | 100 | 1011.0 |
| 20260502020613 | 57 | 350 | 3.5 | 5.2 | 0.08 | 3.66 | 3.66 | 100 | 1010.9 |
| 20260502020513 | 57 | 0 | 1.7 | 5.2 | 0.09 | 3.66 | 3.66 | 100 | 1010.9 |
| 20260502020412 | 57 | 355 | 1.7 | 5.2 | 0.09 | 3.65 | 3.65 | 100 | 1010.8 |
| 20260502020302 | 57 | 0 | 3.5 | 5.2 | 0.09 | 3.65 | 3.65 | 100 | 1010.8 |
| 20260502020201 | 57 | 10 | 3.5 | 5.2 | 0.08 | 3.65 | 3.65 | 100 | 1010.8 |
| 20260502020003 | 57 | 307 | 2.6 | 10.4 | 0.09 | 3.65 | 3.65 | 100 | 1010.7 |
| 20260502015902 | 57 | 25 | 2.6 | 10.4 | 0.09 | 3.65 | 3.65 | 100 | 1010.7 |
| 20260502015802 | 57 | 63 | 1.7 | 10.4 | 0.09 | 3.65 | 3.65 | 100 | 1010.7 |
| 20260502015702 | 57 | 3 | 0.9 | 10.4 | 0.09 | 3.65 | 3.65 | 100 | 1010.7 |
| 20260502015602 | 57 | 27 | 2.6 | 10.4 | 0.09 | 3.65 | 3.65 | 100 | 1010.8 |
| 20260502015503 | 57 | 41 | 2.6 | 11.3 | 0.08 | 3.64 | 3.64 | 100 | 1010.8 |
| 20260502015403 | 57 | 316 | 2.6 | 11.3 | 0.08 | 3.64 | 3.64 | 100 | 1010.8 |
| 20260502015305 | 57 | 27 | 5.2 | 11.3 | 0.11 | 3.64 | 3.64 | 100 | 1010.7 |
| 20260502015203 | 57 | 111 | 5.2 | 11.3 | 0.11 | 3.64 | 3.64 | 100 | 1010.6 |
| 20260502015102 | 57 | 303 | 4.3 | 11.3 | 0.11 | 3.64 | 3.64 | 100 | 1010.6 |
| 20260502015003 | 57 | 52 | 4.3 | 11.3 | 0.11 | 3.64 | 3.64 | 100 | 1010.5 |
| 20260502014902 | 57 | 49 | 3.5 | 11.3 | 0.11 | 3.64 | 3.64 | 100 | 1010.5 |
| 20260502014802 | 57 | 55 | 3.5 | 11.3 | 0.11 | 3.64 | 3.64 | 100 | 1010.5 |
| 20260502014703 | 57 | 0 | 4.3 | 11.3 | 0.11 | 3.63 | 3.63 | 100 | 1010.5 |
| 20260502014603 | 57 | 0 | 4.3 | 11.3 | 0.10 | 3.63 | 3.63 | 100 | 1010.5 |
| 20260502014503 | 57 | 321 | 3.5 | 6.1 | 0.10 | 3.63 | 3.63 | 100 | 1010.5 |
| 20260502014402 | 57 | 0 | 1.7 | 7.8 | 0.10 | 3.63 | 3.63 | 100 | 1010.6 |
| 20260502014304 | 57 | 355 | 1.7 | 7.8 | 0.10 | 3.63 | 3.63 | 100 | 1010.7 |
| 20260502014202 | 57 | 14 | 1.7 | 7.8 | 0.10 | 3.63 | 3.63 | 100 | 1010.9 |
| 20260502014102 | 57 | 62 | 2.6 | 7.8 | 0.10 | 3.63 | 3.63 | 100 | 1010.8 |
| 20260502014002 | 57 | 63 | 1.7 | 7.8 | 0.10 | 3.62 | 3.62 | 100 | 1011.0 |
| 20260502013903 | 57 | 324 | 2.6 | 7.8 | 0.09 | 3.62 | 3.62 | 100 | 1011.0 |
| 20260502013801 | 57 | 17 | 1.7 | 7.8 | 0.09 | 3.62 | 3.62 | 100 | 1011.0 |
| 20260502013701 | 57 | 31 | 1.7 | 7.8 | 0.10 | 3.62 | 3.62 | 100 | 1010.9 |
| 20260502013602 | 57 | 59 | 2.6 | 7.8 | 0.10 | 3.62 | 3.62 | 100 | 1010.9 |
| 20260502013502 | 57 | 89 | 2.6 | 7.8 | 0.10 | 3.62 | 3.62 | 100 | 1010.9 |
| 20260502013402 | 57 | 354 | 2.6 | 7.8 | 0.10 | 3.62 | 3.62 | 100 | 1011.0 |
| 20260502013301 | 57 | 0 | 3.5 | 9.6 | 0.10 | 3.62 | 3.62 | 100 | 1011.0 |
| 20260502013202 | 57 | 0 | 1.7 | 9.6 | 0.10 | 3.62 | 3.62 | 100 | 1011.1 |
| 20260502013102 | 57 | 302 | 3.5 | 9.6 | 0.11 | 3.61 | 3.61 | 100 | 1011.2 |
| 20260502013002 | 57 | 355 | 4.3 | 9.6 | 0.10 | 3.61 | 3.61 | 100 | 1011.2 |
| 20260502012900 | 57 | 52 | 3.5 | 9.6 | 0.10 | 3.61 | 3.61 | 100 | 1011.2 |
| 20260502012801 | 57 | 300 | 2.6 | 9.6 | 0.10 | 3.61 | 3.61 | 100 | 1011.1 |
| 20260502012700 | 57 | 288 | 1.7 | 9.6 | 0.10 | 3.61 | 3.61 | 100 | 1011.1 |
| 20260502012602 | 57 | 289 | 2.6 | 9.6 | 0.11 | 3.60 | 3.60 | 100 | 1010.9 |
| 20260502012502 | 57 | 31 | 3.5 | 9.6 | 0.10 | 3.60 | 3.60 | 100 | 1010.8 |
| 20260502012401 | 58 | 354 | 2.6 | 9.6 | 0.10 | 3.60 | 3.60 | 100 | 1010.6 |
| 20260502012301 | 58 | 23 | 1.7 | 5.2 | 0.10 | 3.60 | 3.60 | 100 | 1010.6 |
| 20260502012200 | 58 | 87 | 1.7 | 6.1 | 0.10 | 3.59 | 3.59 | 100 | 1010.5 |
| 20260502012102 | 58 | 353 | 2.6 | 6.1 | 0.10 | 3.59 | 3.59 | 100 | 1010.5 |
| 20260502012001 | 58 | 353 | 2.6 | 6.1 | 0.10 | 3.59 | 3.59 | 100 | 1010.4 |
| 20260502011900 | 58 | 344 | 2.6 | 9.6 | 0.10 | 3.59 | 3.59 | 100 | 1010.4 |
| 20260502011759 | 58 | 344 | 2.6 | 9.6 | 0.10 | 3.59 | 3.59 | 100 | 1010.4 |
| 20260502011700 | 58 | 344 | 2.6 | 9.6 | 0.10 | 3.59 | 3.59 | 100 | 1010.3 |
| 20260502011559 | 58 | 344 | 2.6 | 9.6 | 0.11 | 3.59 | 3.59 | 100 | 1010.2 |
| 20260502011501 | 58 | 344 | 2.6 | 9.6 | 0.11 | 3.59 | 3.59 | 100 | 1010.0 |
| 20260502011359 | 58 | 344 | 2.6 | 9.6 | 0.11 | 3.59 | 3.59 | 100 | 1009.9 |
| 20260502011259 | 58 | 65 | 1.7 | 9.6 | 0.11 | 3.58 | 3.58 | 100 | 1009.8 |
| 20260502011158 | 58 | 66 | 0.9 | 9.6 | 0.10 | 3.58 | 3.58 | 100 | 1009.8 |
| 20260502011058 | 58 | 173 | 3.5 | 9.6 | 0.11 | 3.58 | 3.58 | 100 | 1009.8 |
| 20260502010959 | 58 | 63 | 3.5 | 9.6 | 0.11 | 3.58 | 3.58 | 100 | 1009.7 |
| 20260502010858 | 58 | 329 | 3.5 | 7.8 | 0.11 | 3.58 | 3.58 | 100 | 1009.6 |
| 20260502010800 | 58 | 281 | 3.5 | 9.6 | 0.11 | 3.58 | 3.58 | 100 | 1009.5 |
| 20260502010658 | 58 | 25 | 2.6 | 9.6 | 0.11 | 3.57 | 3.57 | 100 | 1009.5 |
| 20260502010600 | 58 | 7 | 2.6 | 9.6 | 0.10 | 3.57 | 3.57 | 100 | 1009.5 |
| 20260502010500 | 58 | 282 | 1.7 | 9.6 | 0.11 | 3.57 | 3.57 | 100 | 1009.5 |
| 20260502010359 | 58 | 338 | 1.7 | 9.6 | 0.11 | 3.57 | 3.57 | 100 | 1009.5 |
| 20260502010300 | 58 | 111 | 1.7 | 9.6 | 0.11 | 3.57 | 3.57 | 100 | 1009.5 |
| 20260502010158 | 58 | 341 | 3.5 | 9.6 | 0.11 | 3.57 | 3.57 | 100 | 1009.5 |
| 20260502010059 | 58 | 337 | 3.5 | 9.6 | 0.12 | 3.56 | 3.56 | 100 | 1009.5 |
| 20260502005959 | 58 | 324 | 4.3 | 9.6 | 0.11 | 3.56 | 3.56 | 100 | 1009.5 |
| 20260502005859 | 58 | 87 | 5.2 | 9.6 | 0.11 | 3.56 | 3.56 | 100 | 1009.5 |
| 20260502005758 | 58 | 288 | 3.5 | 8.7 | 0.12 | 3.56 | 3.56 | 100 | 1009.5 |
| 20260502005659 | 58 | 59 | 2.6 | 6.1 | 0.12 | 3.56 | 3.56 | 100 | 1009.5 |
| 20260502005559 | 58 | 32 | 2.6 | 6.1 | 0.12 | 3.56 | 3.56 | 100 | 1009.5 |
| 20260502005457 | 58 | 41 | 3.5 | 6.1 | 0.12 | 3.53 | 3.53 | 100 | 1009.5 |
| 20260502005400 | 58 | 347 | 5.2 | 6.1 | 0.11 | 3.53 | 3.53 | 100 | 1009.4 |
| 20260502005257 | 0 | 0.0 | 0.0 | 0.10 | 3.52 | 3.52 | 1009.3 | ||
| 20260502005157 | 0 | 0.0 | 0.0 | 0.11 | 3.52 | 3.52 | 1009.2 | ||
| 20260502005057 | 0 | 0.0 | 0.0 | 0.11 | 3.52 | 3.52 | 1009.2 | ||
| 20260502004957 | 0 | 0.0 | 0.0 | 0.11 | 3.52 | 3.52 | 1009.1 | ||
| 20260502004857 | 0 | 0.0 | 0.0 | 0.11 | 3.52 | 3.52 | 1009.2 | ||
| 20260502004755 | 0 | 0.0 | 0.0 | 0.11 | 3.52 | 3.52 | 1009.3 | ||
| 20260502004655 | 58 | 47 | 1.7 | 4.3 | 0.12 | 3.52 | 3.52 | 100 | 1009.3 |
| 20260502004555 | 58 | 47 | 1.7 | 4.3 | 0.12 | 3.52 | 3.52 | 100 | 1009.3 |
| 20260502004455 | 58 | 47 | 1.7 | 4.3 | 0.12 | 3.52 | 3.52 | 100 | 1009.3 |
| 20260502004355 | 58 | 47 | 1.7 | 5.2 | 0.12 | 3.52 | 3.52 | 100 | 1009.3 |
| 20260502004254 | 58 | 47 | 1.7 | 5.2 | 0.13 | 3.52 | 3.52 | 100 | 1009.3 |
| 20260502004153 | 58 | 47 | 1.7 | 5.2 | 0.13 | 3.52 | 3.52 | 100 | 1009.2 |
| 20260502004055 | 58 | 47 | 1.7 | 5.2 | 0.13 | 3.52 | 3.52 | 100 | 1009.3 |
| 20260502003953 | 58 | 47 | 1.7 | 5.2 | 0.13 | 3.52 | 3.52 | 100 | 1009.3 |
| 20260502003854 | 58 | 47 | 1.7 | 5.2 | 0.14 | 3.52 | 3.52 | 100 | 1009.2 |
| 20260502003752 | 58 | 47 | 1.7 | 5.2 | 0.14 | 3.52 | 3.52 | 100 | 1009.3 |
| 20260502003652 | 58 | 85 | 1.7 | 5.2 | 0.14 | 3.52 | 3.52 | 100 | 1009.3 |
| 20260502003552 | 58 | 66 | 1.7 | 5.2 | 0.14 | 3.52 | 3.52 | 100 | 1009.3 |
| 20260502003452 | 58 | 341 | 3.5 | 5.2 | 0.14 | 3.52 | 3.52 | 100 | 1009.5 |
| 20260502003352 | 59 | 45 | 2.6 | 5.2 | 0.14 | 3.52 | 3.52 | 100 | 1009.4 |
| 20260502003252 | 59 | 71 | 1.7 | 4.3 | 0.14 | 3.52 | 3.52 | 100 | 1009.4 |
| 20260502003154 | 59 | 0 | 1.7 | 6.1 | 0.14 | 3.51 | 3.51 | 100 | 1009.4 |
| 20260502003054 | 59 | 0 | 3.5 | 6.1 | 0.14 | 3.51 | 3.51 | 100 | 1009.4 |
| 20260502002953 | 59 | 39 | 3.5 | 6.1 | 0.14 | 3.51 | 3.51 | 100 | 1009.4 |
| 20260502002853 | 59 | 39 | 1.7 | 6.1 | 0.14 | 3.51 | 3.51 | 100 | 1009.4 |
| 20260502002753 | 59 | 34 | 1.7 | 6.1 | 0.14 | 3.51 | 3.51 | 100 | 1009.4 |
| 20260502002653 | 59 | 30 | 2.6 | 6.1 | 0.14 | 3.50 | 3.50 | 100 | 1009.3 |
| 20260502002551 | 59 | 329 | 3.5 | 6.1 | 0.13 | 3.50 | 3.50 | 100 | 1009.2 |
| 20260502002454 | 59 | 45 | 1.7 | 6.1 | 0.13 | 3.50 | 3.50 | 100 | 1009.2 |
| 20260502002352 | 59 | 7 | 1.7 | 6.1 | 0.13 | 3.50 | 3.50 | 100 | 1009.2 |
| 20260502002252 | 59 | 0 | 2.6 | 6.1 | 0.13 | 3.50 | 3.50 | 100 | 1009.1 |
| 20260502002153 | 59 | 96 | 1.7 | 5.2 | 0.13 | 3.50 | 3.50 | 100 | 1009.2 |
| 20260502002052 | 59 | 58 | 1.7 | 5.2 | 0.13 | 3.50 | 3.50 | 100 | 1009.2 |
| 20260502001952 | 59 | 44 | 0.9 | 5.2 | 0.12 | 3.49 | 3.49 | 100 | 1009.4 |
| 20260502001854 | 59 | 18 | 0.9 | 5.2 | 0.12 | 3.49 | 3.49 | 100 | 1009.5 |
| 20260502001752 | 59 | 18 | 0.9 | 5.2 | 0.12 | 3.49 | 3.49 | 100 | 1009.5 |
| 20260502001652 | 59 | 18 | 0.9 | 5.2 | 0.12 | 3.48 | 3.48 | 100 | 1009.5 |
| 20260502001553 | 59 | 0 | 0.9 | 5.2 | 0.11 | 3.48 | 3.48 | 100 | 1009.5 |
| 20260502001451 | 59 | 334 | 2.6 | 5.2 | 0.11 | 3.48 | 3.48 | 100 | 1009.5 |
| 20260502001353 | 59 | 25 | 1.7 | 5.2 | 0.11 | 3.48 | 3.48 | 100 | 1009.4 |
| 20260502001251 | 59 | 355 | 1.7 | 5.2 | 0.11 | 3.48 | 3.48 | 100 | 1009.2 |
| 20260502001152 | 59 | 3 | 1.7 | 5.2 | 0.11 | 3.47 | 3.47 | 100 | 1009.1 |
| 20260502001051 | 59 | 47 | 2.6 | 8.7 | 0.10 | 3.47 | 3.47 | 100 | 1008.9 |
| 20260502000953 | 60 | 86 | 1.7 | 8.7 | 0.10 | 3.47 | 3.47 | 100 | 1008.8 |
| 20260502000851 | 59 | 87 | 1.7 | 8.7 | 0.10 | 3.47 | 3.47 | 100 | 1008.5 |
| 20260502000751 | 59 | 83 | 2.6 | 8.7 | 0.10 | 3.47 | 3.47 | 100 | 1008.4 |
| 20260502000652 | 59 | 58 | 2.6 | 8.7 | 0.10 | 3.47 | 3.47 | 100 | 1008.1 |
| 20260502000551 | 59 | 69 | 1.7 | 8.7 | 0.10 | 3.46 | 3.46 | 100 | 1007.8 |
| 20260502000454 | 59 | 30 | 1.7 | 8.7 | 0.09 | 3.46 | 3.46 | 100 | 1007.6 |
| 20260502000354 | 59 | 69 | 2.6 | 8.7 | 0.09 | 3.46 | 3.46 | 100 | 1007.4 |
| 20260502000252 | 59 | 102 | 3.5 | 8.7 | 0.09 | 3.46 | 3.46 | 100 | 1007.2 |
| 20260502000152 | 59 | 24 | 3.5 | 8.7 | 0.09 | 3.45 | 3.45 | 100 | 1007.4 |
| 20260502000052 | 59 | 89 | 3.5 | 8.7 | 0.08 | 3.45 | 3.45 | 100 | 1007.7 |
| 20260501235953 | 59 | 65 | 3.5 | 8.7 | 0.08 | 3.45 | 3.45 | 100 | 1007.8 |
| 20260501235852 | 59 | 80 | 3.5 | 8.7 | 0.08 | 3.44 | 3.44 | 100 | 1008.1 |
| 20260501235752 | 59 | 93 | 3.5 | 8.7 | 0.07 | 3.44 | 3.44 | 100 | 1008.2 |
| 20260501235651 | 59 | 80 | 4.3 | 8.7 | 0.07 | 3.44 | 3.44 | 100 | 1008.4 |
| 20260501235552 | 59 | 80 | 4.3 | 8.7 | 0.07 | 3.44 | 3.44 | 100 | 1008.5 |
| 20260501235452 | 59 | 90 | 2.6 | 5.2 | 0.07 | 3.44 | 3.44 | 100 | 1008.7 |
| 20260501235351 | 59 | 80 | 2.6 | 5.2 | 0.07 | 3.43 | 3.43 | 100 | 1008.9 |
| 20260501235252 | 59 | 89 | 2.6 | 5.2 | 0.05 | 3.42 | 3.42 | 100 | 1008.9 |
| 20260501235152 | 59 | 80 | 2.6 | 5.2 | 0.06 | 3.42 | 3.42 | 100 | 1009.1 |
| 20260501235036 | 59 | 73 | 2.6 | 5.2 | 0.06 | 3.42 | 3.42 | 100 | 1009.2 |
| 20260501234931 | 60 | 85 | 1.7 | 5.2 | 0.06 | 3.42 | 3.42 | 100 | 1009.2 |
| 20260501234831 | 60 | 14 | 1.7 | 5.2 | 0.06 | 3.42 | 3.42 | 100 | 1009.2 |
| 20260501234732 | 60 | 35 | 1.7 | 5.2 | 0.06 | 3.41 | 3.41 | 100 | 1009.2 |
| 20260501234627 | 60 | 71 | 2.6 | 5.2 | 0.05 | 3.41 | 3.41 | 100 | 1009.2 |
| 20260501234503 | 60 | 0 | 2.6 | 5.2 | 0.05 | 3.41 | 3.41 | 100 | 1009.3 |
| 20260501234403 | 60 | 68 | 2.6 | 4.3 | 0.05 | 3.40 | 3.40 | 100 | 1009.2 |
| 20260501234304 | 60 | 83 | 2.6 | 6.1 | 0.04 | 3.40 | 3.40 | 100 | 1009.3 |
| 20260501234203 | 60 | 25 | 1.7 | 6.1 | 0.04 | 3.40 | 3.40 | 100 | 1009.3 |
| 20260501234102 | 60 | 13 | 1.7 | 6.1 | 0.04 | 3.40 | 3.40 | 100 | 1009.3 |
| 20260501234003 | 59 | 65 | 1.7 | 6.1 | 0.04 | 3.39 | 3.39 | 100 | 1009.5 |
| 20260501233903 | 59 | 54 | 1.7 | 6.1 | 0.04 | 3.39 | 3.39 | 100 | 1009.6 |
| 20260501233802 | 59 | 305 | 1.7 | 6.1 | 0.04 | 3.38 | 3.38 | 100 | 1009.7 |
| 20260501233702 | 59 | 56 | 1.7 | 6.1 | 0.03 | 3.38 | 3.38 | 100 | 1010.0 |
| 20260501233604 | 59 | 31 | 1.7 | 6.1 | 0.03 | 3.38 | 3.38 | 100 | 1010.1 |
| 20260501233503 | 59 | 355 | 2.6 | 6.1 | 0.03 | 3.38 | 3.38 | 100 | 1010.1 |
| 20260501233402 | 59 | 61 | 1.7 | 6.1 | 0.03 | 3.38 | 3.38 | 100 | 1010.1 |
| 20260501233302 | 59 | 62 | 0.9 | 5.2 | 0.03 | 3.38 | 3.38 | 100 | 1009.9 |
| 20260501233203 | 59 | 62 | 0.9 | 5.2 | 0.03 | 3.38 | 3.38 | 100 | 1009.8 |
| 20260501233101 | 59 | 358 | 0.9 | 5.2 | 0.03 | 3.37 | 3.37 | 100 | 1009.7 |
| 20260501233004 | 59 | 71 | 0.9 | 5.2 | 0.02 | 3.37 | 3.37 | 100 | 1009.7 |
| 20260501232901 | 59 | 69 | 0.9 | 5.2 | 0.03 | 3.37 | 3.37 | 100 | 1009.7 |
| 20260501232803 | 59 | 0 | 1.7 | 5.2 | 0.03 | 3.37 | 3.37 | 100 | 1009.7 |
| 20260501232704 | 59 | 0 | 2.6 | 5.2 | 0.03 | 3.37 | 3.37 | 100 | 1009.7 |
| 20260501232602 | 59 | 350 | 1.7 | 8.7 | 0.03 | 3.37 | 3.37 | 100 | 1009.7 |
| 20260501232505 | 59 | 17 | 1.7 | 8.7 | 0.03 | 3.37 | 3.37 | 100 | 1009.7 |
| 20260501232402 | 59 | 350 | 0.9 | 8.7 | 0.03 | 3.37 | 3.37 | 100 | 1009.6 |
| 20260501232305 | 59 | 56 | 1.7 | 8.7 | 0.04 | 3.37 | 3.37 | 100 | 1009.5 |
| 20260501232201 | 59 | 56 | 1.7 | 8.7 | 0.04 | 3.37 | 3.37 | 100 | 1009.3 |
| 20260501232103 | 59 | 350 | 0.9 | 8.7 | 0.04 | 3.37 | 3.37 | 100 | 1009.1 |
| 20260501232002 | 59 | 0 | 2.6 | 8.7 | 0.04 | 3.37 | 3.37 | 100 | 1008.9 |
| 20260501231904 | 59 | 341 | 3.5 | 8.7 | 0.04 | 3.37 | 3.37 | 100 | 1008.6 |
| 20260501231802 | 59 | 39 | 3.5 | 8.7 | 0.04 | 3.37 | 3.37 | 100 | 1008.3 |
| 20260501231701 | 59 | 42 | 2.6 | 8.7 | 0.05 | 3.37 | 3.37 | 100 | 1008.0 |
| 20260501231603 | 59 | 96 | 1.7 | 7.8 | 0.05 | 3.37 | 3.37 | 100 | 1007.8 |
| 20260501231504 | 60 | 113 | 4.3 | 7.8 | 0.05 | 3.37 | 3.37 | 100 | 1007.6 |
| 20260501231404 | 60 | 113 | 4.3 | 7.8 | 0.05 | 3.37 | 3.37 | 100 | 1007.6 |
| 20260501231303 | 60 | 113 | 4.3 | 7.8 | 0.05 | 3.37 | 3.37 | 100 | 1007.6 |
| 20260501231202 | 60 | 113 | 4.3 | 7.8 | 0.05 | 3.37 | 3.37 | 100 | 1007.5 |
| 20260501231103 | 60 | 113 | 4.3 | 7.8 | 0.06 | 3.37 | 3.37 | 100 | 1007.4 |
| 20260501231003 | 60 | 113 | 4.3 | 7.8 | 0.06 | 3.37 | 3.37 | 100 | 1007.5 |
| 20260501230902 | 60 | 113 | 4.3 | 7.8 | 0.06 | 3.37 | 3.37 | 100 | 1007.5 |
| 20260501230803 | 60 | 87 | 3.5 | 7.8 | 0.06 | 3.37 | 3.37 | 100 | 1007.7 |
| 20260501230704 | 60 | 82 | 3.5 | 5.2 | 0.07 | 3.37 | 3.37 | 100 | 1007.7 |
| 20260501230603 | 60 | 75 | 3.5 | 5.2 | 0.07 | 3.37 | 3.37 | 100 | 1007.7 |
| 20260501230503 | 60 | 93 | 3.5 | 5.2 | 0.07 | 3.37 | 3.37 | 100 | 1007.8 |
| 20260501230403 | 60 | 78 | 2.6 | 5.2 | 0.07 | 3.37 | 3.37 | 100 | 1008.0 |
| 20260501230302 | 60 | 80 | 1.7 | 5.2 | 0.07 | 3.37 | 3.37 | 100 | 1008.0 |
| 20260501230202 | 60 | 114 | 2.6 | 5.2 | 0.07 | 3.37 | 3.37 | 100 | 1007.9 |
| 20260501230003 | 60 | 97 | 2.6 | 7.8 | 0.08 | 3.37 | 3.37 | 100 | 1008.2 |
| 20260501225903 | 60 | 71 | 3.5 | 7.8 | 0.08 | 3.37 | 3.37 | 100 | 1008.3 |
| 20260501225803 | 60 | 82 | 2.6 | 7.8 | 0.08 | 3.37 | 3.37 | 100 | 1008.3 |
| 20260501225702 | 60 | 66 | 3.5 | 7.8 | 0.09 | 3.37 | 3.37 | 100 | 1008.5 |
| 20260501225603 | 60 | 73 | 2.6 | 7.8 | 0.09 | 3.37 | 3.37 | 100 | 1008.5 |
| 20260501225503 | 60 | 97 | 1.7 | 7.8 | 0.09 | 3.37 | 3.37 | 100 | 1008.6 |
| 20260501225403 | 60 | 75 | 2.6 | 7.8 | 0.09 | 3.37 | 3.37 | 100 | 1008.7 |
| 20260501225305 | 59 | 87 | 2.6 | 7.8 | 0.09 | 3.36 | 3.36 | 100 | 1008.8 |
| 20260501225203 | 59 | 85 | 3.5 | 7.8 | 0.08 | 3.36 | 3.36 | 100 | 1008.8 |
| 20260501225103 | 60 | 59 | 3.5 | 7.8 | 0.09 | 3.36 | 3.36 | 100 | 1008.8 |
| 20260501225003 | 60 | 94 | 2.6 | 5.2 | 0.09 | 3.36 | 3.36 | 100 | 1008.8 |
| 20260501224901 | 60 | 76 | 2.6 | 5.2 | 0.09 | 3.36 | 3.36 | 100 | 1008.8 |
| 20260501224803 | 60 | 79 | 2.6 | 5.2 | 0.09 | 3.36 | 3.36 | 100 | 1008.8 |
| 20260501224703 | 60 | 99 | 2.6 | 5.2 | 0.10 | 3.36 | 3.36 | 100 | 1008.7 |
| 20260501224604 | 60 | 54 | 3.5 | 6.1 | 0.10 | 3.36 | 3.36 | 100 | 1008.7 |
| 20260501224504 | 60 | 86 | 2.6 | 6.1 | 0.10 | 3.36 | 3.36 | 100 | 1008.7 |
| 20260501224403 | 60 | 86 | 2.6 | 7.8 | 0.11 | 3.36 | 3.36 | 100 | 1008.7 |
| 20260501224303 | 60 | 86 | 2.6 | 7.8 | 0.11 | 3.36 | 3.36 | 100 | 1008.6 |
| 20260501224203 | 60 | 86 | 2.6 | 7.8 | 0.11 | 3.36 | 3.36 | 100 | 1008.5 |
| 20260501224103 | 60 | 87 | 3.5 | 8.7 | 0.11 | 3.36 | 3.36 | 100 | 1008.5 |
| 20260501224004 | 60 | 68 | 3.5 | 8.7 | 0.11 | 3.35 | 3.35 | 100 | 1008.3 |
| 20260501223903 | 60 | 47 | 3.5 | 8.7 | 0.10 | 3.35 | 3.35 | 100 | 1008.3 |
| 20260501223800 | 60 | 52 | 4.3 | 8.7 | 0.10 | 3.35 | 3.35 | 100 | 1008.4 |
| 20260501223649 | 60 | 97 | 3.5 | 8.7 | 0.11 | 3.35 | 3.35 | 100 | 1008.4 |
| 20260501223548 | 60 | 41 | 3.5 | 8.7 | 0.11 | 3.35 | 3.35 | 100 | 1008.5 |
| 20260501223448 | 60 | 82 | 4.3 | 8.7 | 0.11 | 3.35 | 3.35 | 100 | 1008.7 |
| 20260501223349 | 60 | 58 | 4.3 | 8.7 | 0.11 | 3.35 | 3.35 | 100 | 1008.5 |
| 20260501223248 | 60 | 25 | 3.5 | 9.6 | 0.11 | 3.35 | 3.35 | 100 | 1008.5 |
| 20260501223148 | 60 | 85 | 4.3 | 9.6 | 0.12 | 3.35 | 3.35 | 100 | 1008.5 |
| 20260501223048 | 60 | 44 | 4.3 | 9.6 | 0.12 | 3.35 | 3.35 | 100 | 1008.3 |
| 20260501222946 | 60 | 3 | 3.5 | 9.6 | 0.11 | 3.33 | 3.33 | 100 | 1008.4 |
| 20260501222847 | 60 | 3 | 3.5 | 9.6 | 0.12 | 3.33 | 3.33 | 100 | 1008.5 |
| 20260501222747 | 60 | 3 | 3.5 | 9.6 | 0.12 | 3.33 | 3.33 | 100 | 1008.5 |
| 20260501222648 | 60 | 3 | 3.5 | 9.6 | 0.12 | 3.33 | 3.33 | 100 | 1008.5 |
| 20260501222546 | 60 | 3 | 3.5 | 9.6 | 0.12 | 3.33 | 3.33 | 100 | 1008.6 |
| 20260501222447 | 60 | 3 | 3.5 | 9.6 | 0.12 | 3.33 | 3.33 | 100 | 1008.5 |
| 20260501222347 | 60 | 42 | 4.3 | 9.6 | 0.11 | 3.33 | 3.33 | 100 | 1008.5 |
| 20260501222245 | 60 | 314 | 2.6 | 7.8 | 0.12 | 3.33 | 3.33 | 100 | 1008.6 |
| 20260501222145 | 60 | 87 | 1.7 | 6.1 | 0.12 | 3.33 | 3.33 | 100 | 1008.9 |
| 20260501222047 | 61 | 63 | 2.6 | 6.1 | 0.12 | 3.33 | 3.33 | 100 | 1008.9 |
| 20260501221945 | 61 | 0 | 2.6 | 6.1 | 0.12 | 3.33 | 3.33 | 100 | 1009.0 |
| 20260501221846 | 61 | 27 | 2.6 | 6.1 | 0.12 | 3.33 | 3.33 | 100 | 1009.1 |
| 20260501221746 | 61 | 56 | 2.6 | 6.1 | 0.13 | 3.32 | 3.32 | 100 | 1009.0 |
| 20260501221646 | 61 | 82 | 1.7 | 6.1 | 0.12 | 3.32 | 3.32 | 100 | 1009.0 |
| 20260501221547 | 60 | 0 | 0.9 | 6.1 | 0.12 | 3.32 | 3.32 | 100 | 1009.0 |
| 20260501221446 | 60 | 0 | 1.7 | 6.1 | 0.12 | 3.32 | 3.32 | 100 | 1009.0 |
| 20260501221346 | 60 | 347 | 3.5 | 6.1 | 0.13 | 3.32 | 3.32 | 100 | 1009.0 |
| 20260501221246 | 60 | 104 | 3.5 | 6.1 | 0.13 | 3.32 | 3.32 | 100 | 1008.9 |
| 20260501221146 | 60 | 8 | 3.5 | 6.1 | 0.13 | 3.31 | 3.31 | 100 | 1008.8 |
| 20260501221046 | 60 | 355 | 2.6 | 6.1 | 0.12 | 3.31 | 3.31 | 100 | 1008.7 |
| 20260501220945 | 60 | 0 | 3.5 | 6.1 | 0.13 | 3.31 | 3.31 | 100 | 1008.7 |
| 20260501220846 | 60 | 59 | 3.5 | 6.1 | 0.15 | 3.31 | 3.31 | 100 | 1008.7 |
| 20260501220744 | 60 | 47 | 3.5 | 6.1 | 0.15 | 3.30 | 3.30 | 100 | 1008.7 |
| 20260501220645 | 60 | 51 | 3.5 | 6.1 | 0.14 | 3.30 | 3.30 | 100 | 1008.6 |
| 20260501220547 | 60 | 83 | 2.6 | 4.3 | 0.14 | 3.29 | 3.29 | 100 | 1008.5 |
| 20260501220446 | 60 | 83 | 2.6 | 4.3 | 0.14 | 3.29 | 3.29 | 100 | 1008.5 |
| 20260501220346 | 60 | 83 | 2.6 | 4.3 | 0.14 | 3.29 | 3.29 | 100 | 1008.6 |
| 20260501220246 | 60 | 83 | 2.6 | 4.3 | 0.14 | 3.29 | 3.29 | 100 | 1008.6 |
| 20260501220146 | 60 | 37 | 2.6 | 4.3 | 0.13 | 3.29 | 3.29 | 100 | 1008.7 |
| 20260501220046 | 60 | 76 | 2.6 | 4.3 | 0.13 | 3.29 | 3.29 | 100 | 1008.8 |
| 20260501215946 | 60 | 11 | 1.7 | 4.3 | 0.13 | 3.29 | 3.29 | 100 | 1009.0 |
| 20260501215846 | 60 | 7 | 1.7 | 4.3 | 0.13 | 3.28 | 3.28 | 100 | 1009.1 |
| 20260501215731 | 60 | 6 | 1.7 | 4.3 | 0.14 | 3.28 | 3.28 | 100 | 1009.2 |
| 20260501215631 | 60 | 54 | 0.9 | 4.3 | 0.13 | 3.28 | 3.28 | 100 | 1009.2 |
| 20260501215533 | 60 | 1 | 2.6 | 4.3 | 0.13 | 3.27 | 3.27 | 100 | 1009.2 |
| 20260501215432 | 60 | 51 | 2.6 | 4.3 | 0.13 | 3.27 | 3.27 | 100 | 1009.2 |
| 20260501215332 | 60 | 51 | 2.6 | 4.3 | 0.13 | 3.27 | 3.27 | 100 | 1009.1 |
| 20260501215203 | 60 | 51 | 2.6 | 4.3 | 0.13 | 3.27 | 3.27 | 100 | 1009.1 |
| 20260501215101 | 60 | 28 | 1.7 | 4.3 | 0.12 | 3.27 | 3.27 | 100 | 1009.1 |
| 20260501215002 | 60 | 97 | 1.7 | 3.5 | 0.12 | 3.27 | 3.27 | 100 | 1009.1 |
| 20260501214903 | 60 | 0 | 0.9 | 3.5 | 0.12 | 3.27 | 3.27 | 100 | 1009.0 |
| 20260501214802 | 60 | 72 | 1.7 | 3.5 | 0.12 | 3.26 | 3.26 | 100 | 1008.9 |
| 20260501214703 | 60 | 41 | 1.7 | 4.3 | 0.12 | 3.26 | 3.26 | 100 | 1008.9 |
| 20260501214603 | 60 | 0 | 1.7 | 4.3 | 0.12 | 3.26 | 3.26 | 100 | 1008.9 |
| 20260501214504 | 60 | 34 | 1.7 | 4.3 | 0.12 | 3.25 | 3.25 | 100 | 1008.8 |
| 20260501214403 | 60 | 73 | 1.7 | 4.3 | 0.11 | 3.25 | 3.25 | 100 | 1008.8 |
| 20260501214304 | 60 | 73 | 1.7 | 4.3 | 0.11 | 3.25 | 3.25 | 100 | 1008.8 |
| 20260501214203 | 60 | 73 | 1.7 | 6.1 | 0.11 | 3.25 | 3.25 | 100 | 1008.8 |
| 20260501214102 | 60 | 73 | 1.7 | 6.1 | 0.11 | 3.25 | 3.25 | 100 | 1008.7 |
| 20260501214004 | 60 | 348 | 2.6 | 6.1 | 0.11 | 3.25 | 3.25 | 100 | 1008.7 |
| 20260501213904 | 60 | 48 | 1.7 | 6.1 | 0.11 | 3.25 | 3.25 | 100 | 1008.5 |
| 20260501213803 | 60 | 11 | 1.7 | 6.1 | 0.11 | 3.24 | 3.24 | 100 | 1008.4 |
| 20260501213704 | 60 | 38 | 1.7 | 6.1 | 0.12 | 3.24 | 3.24 | 100 | 1008.3 |
| 20260501213603 | 61 | 71 | 1.7 | 6.1 | 0.12 | 3.24 | 3.24 | 100 | 1008.2 |
| 20260501213503 | 61 | 65 | 1.7 | 6.1 | 0.12 | 3.24 | 3.24 | 100 | 1008.0 |
| 20260501213403 | 61 | 63 | 3.5 | 6.1 | 0.12 | 3.24 | 3.24 | 100 | 1007.8 |
| 20260501213304 | 61 | 59 | 4.3 | 6.1 | 0.12 | 3.23 | 3.23 | 100 | 1007.7 |
| 20260501213204 | 61 | 59 | 2.6 | 6.1 | 0.11 | 3.23 | 3.23 | 100 | 1007.6 |
| 20260501213103 | 61 | 78 | 3.5 | 6.1 | 0.11 | 3.23 | 3.23 | 100 | 1007.8 |
| 20260501213005 | 61 | 75 | 3.5 | 6.1 | 0.11 | 3.22 | 3.22 | 100 | 1007.8 |
| 20260501212903 | 61 | 62 | 2.6 | 7.8 | 0.10 | 3.22 | 3.22 | 100 | 1007.9 |
| 20260501212802 | 61 | 63 | 2.6 | 7.8 | 0.10 | 3.22 | 3.22 | 100 | 1008.0 |
| 20260501212702 | 60 | 1 | 2.6 | 7.8 | 0.10 | 3.22 | 3.22 | 100 | 1008.0 |
| 20260501212603 | 60 | 62 | 1.7 | 7.8 | 0.11 | 3.22 | 3.22 | 100 | 1008.0 |
| 20260501212504 | 60 | 45 | 1.7 | 7.8 | 0.11 | 3.22 | 3.22 | 100 | 1008.0 |
| 20260501212402 | 60 | 55 | 2.6 | 7.8 | 0.11 | 3.21 | 3.21 | 100 | 1007.9 |
| 20260501212305 | 60 | 17 | 2.6 | 9.6 | 0.11 | 3.21 | 3.21 | 100 | 1007.8 |
| 20260501212204 | 60 | 28 | 2.6 | 9.6 | 0.11 | 3.21 | 3.21 | 100 | 1007.6 |
| 20260501212104 | 60 | 71 | 3.5 | 9.6 | 0.11 | 3.21 | 3.21 | 100 | 1007.4 |
| 20260501212004 | 60 | 21 | 3.5 | 9.6 | 0.11 | 3.21 | 3.21 | 100 | 1007.4 |
| 20260501211902 | 60 | 55 | 2.6 | 9.6 | 0.11 | 3.20 | 3.20 | 100 | 1007.3 |
| 20260501211803 | 60 | 73 | 2.6 | 9.6 | 0.10 | 3.20 | 3.20 | 100 | 1007.2 |
| 20260501211702 | 60 | 52 | 2.6 | 9.6 | 0.10 | 3.20 | 3.20 | 100 | 1007.1 |
| 20260501211602 | 61 | 75 | 3.5 | 9.6 | 0.10 | 3.20 | 3.20 | 100 | 1007.0 |
| 20260501211502 | 61 | 63 | 4.3 | 9.6 | 0.10 | 3.20 | 3.20 | 100 | 1006.9 |
| 20260501211403 | 61 | 73 | 3.5 | 9.6 | 0.10 | 3.19 | 3.19 | 100 | 1007.0 |
| 20260501211303 | 61 | 76 | 1.7 | 5.2 | 0.09 | 3.19 | 3.19 | 100 | 1007.0 |
| 20260501211204 | 61 | 78 | 2.6 | 5.2 | 0.09 | 3.18 | 3.18 | 100 | 1007.1 |
| 20260501211103 | 61 | 68 | 2.6 | 5.2 | 0.09 | 3.18 | 3.18 | 100 | 1007.2 |
| 20260501211004 | 61 | 83 | 1.7 | 2.6 | 0.08 | 3.18 | 3.18 | 100 | 1007.4 |
| 20260501210902 | 61 | 56 | 0.9 | 3.5 | 0.08 | 3.18 | 3.18 | 100 | 1007.5 |
| 20260501210804 | 61 | 38 | 0.9 | 3.5 | 0.06 | 3.16 | 3.16 | 100 | 1007.5 |
| 20260501210703 | 60 | 65 | 1.7 | 3.5 | 0.06 | 3.16 | 3.16 | 100 | 1007.6 |
| 20260501210603 | 60 | 65 | 1.7 | 6.1 | 0.07 | 3.16 | 3.16 | 100 | 1007.7 |
| 20260501210505 | 60 | 65 | 1.7 | 6.1 | 0.07 | 3.16 | 3.16 | 100 | 1007.9 |
| 20260501210403 | 60 | 65 | 1.7 | 6.1 | 0.07 | 3.16 | 3.16 | 100 | 1008.1 |
| 20260501210303 | 61 | 44 | 0.9 | 6.1 | 0.07 | 3.16 | 3.16 | 100 | 1008.3 |
| 20260501210204 | 61 | 69 | 1.7 | 6.1 | 0.07 | 3.16 | 3.16 | 100 | 1008.3 |
| 20260501210103 | 61 | 69 | 1.7 | 6.1 | 0.07 | 3.16 | 3.16 | 100 | 1008.2 |
| 20260501210004 | 61 | 69 | 2.6 | 6.1 | 0.07 | 3.16 | 3.16 | 100 | 1008.2 |
| 20260501205902 | 61 | 75 | 1.7 | 6.1 | 0.07 | 3.15 | 3.15 | 100 | 1008.1 |
| 20260501205804 | 61 | 73 | 1.7 | 6.1 | 0.07 | 3.15 | 3.15 | 100 | 1008.0 |
| 20260501205703 | 61 | 44 | 1.7 | 6.1 | 0.07 | 3.15 | 3.15 | 100 | 1008.0 |
| 20260501205604 | 61 | 4 | 1.7 | 6.1 | 0.07 | 3.15 | 3.15 | 100 | 1008.2 |
| 20260501205504 | 61 | 72 | 1.7 | 6.1 | 0.07 | 3.15 | 3.15 | 100 | 1008.3 |
| 20260501205402 | 61 | 72 | 1.7 | 6.1 | 0.07 | 3.15 | 3.15 | 100 | 1008.3 |
| 20260501205306 | 61 | 39 | 1.7 | 6.1 | 0.07 | 3.15 | 3.15 | 100 | 1008.3 |
| 20260501205203 | 61 | 6 | 2.6 | 6.1 | 0.07 | 3.15 | 3.15 | 100 | 1008.4 |
| 20260501205104 | 61 | 0 | 2.6 | 6.1 | 0.07 | 3.15 | 3.15 | 100 | 1008.6 |
| 20260501205002 | 61 | 11 | 2.6 | 6.1 | 0.07 | 3.15 | 3.15 | 100 | 1008.6 |
| 20260501204903 | 61 | 313 | 1.7 | 5.2 | 0.08 | 3.15 | 3.15 | 100 | 1008.7 |
| 20260501204803 | 61 | 14 | 2.6 | 5.2 | 0.08 | 3.14 | 3.14 | 100 | 1008.6 |
| 20260501204703 | 61 | 353 | 2.6 | 6.1 | 0.07 | 3.14 | 3.14 | 100 | 1008.5 |
| 20260501204604 | 61 | 286 | 1.7 | 6.1 | 0.11 | 3.14 | 3.14 | 100 | 1008.3 |
| 20260501204504 | 61 | 31 | 1.7 | 6.1 | 0.11 | 3.14 | 3.14 | 100 | 1008.0 |
| 20260501204403 | 61 | 30 | 1.7 | 6.1 | 0.11 | 3.14 | 3.14 | 100 | 1007.9 |
| 20260501204302 | 61 | 27 | 2.6 | 6.1 | 0.11 | 3.14 | 3.14 | 100 | 1007.8 |
| 20260501204203 | 61 | 7 | 2.6 | 6.1 | 0.11 | 3.14 | 3.14 | 100 | 1007.7 |
| 20260501204104 | 61 | 48 | 3.5 | 6.1 | 0.11 | 3.14 | 3.14 | 100 | 1007.6 |
| 20260501204004 | 61 | 71 | 3.5 | 6.1 | 0.11 | 3.14 | 3.14 | 100 | 1007.4 |
| 20260501203902 | 61 | 282 | 2.6 | 6.1 | 0.11 | 3.12 | 3.12 | 100 | 1007.3 |
| 20260501203803 | 61 | 0 | 3.5 | 6.1 | 0.11 | 3.12 | 3.12 | 100 | 1007.3 |
| 20260501203702 | 61 | 20 | 3.5 | 5.2 | 0.09 | 3.12 | 3.12 | 100 | 1007.2 |
| 20260501203603 | 61 | 16 | 1.7 | 5.2 | 0.09 | 3.12 | 3.12 | 100 | 1007.3 |
| 20260501203503 | 61 | 16 | 1.7 | 5.2 | 0.09 | 3.12 | 3.12 | 100 | 1007.4 |
| 20260501203403 | 61 | 16 | 1.7 | 5.2 | 0.09 | 3.12 | 3.12 | 100 | 1007.4 |
| 20260501203303 | 61 | 16 | 1.7 | 5.2 | 0.09 | 3.12 | 3.12 | 100 | 1007.4 |
| 20260501203203 | 61 | 16 | 1.7 | 5.2 | 0.09 | 3.12 | 3.12 | 100 | 1007.4 |
| 20260501203103 | 61 | 61 | 1.7 | 5.2 | 0.09 | 3.12 | 3.12 | 100 | 1007.4 |
| 20260501203003 | 61 | 24 | 2.6 | 5.2 | 0.09 | 3.12 | 3.12 | 100 | 1007.5 |
| 20260501202903 | 61 | 66 | 1.7 | 4.3 | 0.09 | 3.12 | 3.12 | 100 | 1007.5 |
| 20260501202801 | 61 | 41 | 1.7 | 4.3 | 0.09 | 3.12 | 3.12 | 100 | 1007.6 |
| 20260501202702 | 61 | 0 | 1.7 | 4.3 | 0.10 | 3.11 | 3.11 | 100 | 1007.6 |
| 20260501202602 | 61 | 42 | 1.7 | 8.7 | 0.09 | 3.11 | 3.11 | 100 | 1007.7 |
| 20260501202504 | 61 | 62 | 1.7 | 8.7 | 0.09 | 3.11 | 3.11 | 100 | 1007.7 |
| 20260501202404 | 61 | 66 | 1.7 | 8.7 | 0.10 | 3.10 | 3.10 | 100 | 1007.7 |
| 20260501202306 | 61 | 7 | 1.7 | 8.7 | 0.09 | 3.10 | 3.10 | 100 | 1007.8 |
| 20260501202203 | 61 | 7 | 1.7 | 8.7 | 0.09 | 3.10 | 3.10 | 100 | 1007.8 |
| 20260501202103 | 61 | 7 | 1.7 | 8.7 | 0.10 | 3.10 | 3.10 | 100 | 1007.6 |
| 20260501202003 | 61 | 7 | 1.7 | 8.7 | 0.10 | 3.10 | 3.10 | 100 | 1007.4 |
| 20260501201901 | 61 | 55 | 1.7 | 8.7 | 0.10 | 3.10 | 3.10 | 100 | 1007.3 |
| 20260501201803 | 61 | 75 | 2.6 | 8.7 | 0.13 | 3.10 | 3.10 | 100 | 1007.3 |
| 20260501201703 | 61 | 47 | 1.7 | 4.3 | 0.13 | 3.10 | 3.10 | 100 | 1007.3 |
| 20260501201603 | 61 | 56 | 1.7 | 5.2 | 0.13 | 3.10 | 3.10 | 100 | 1007.5 |
| 20260501201504 | 61 | 45 | 2.6 | 5.2 | 0.13 | 3.10 | 3.10 | 100 | 1007.6 |
| 20260501201403 | 61 | 41 | 2.6 | 5.2 | 0.13 | 3.10 | 3.10 | 100 | 1007.6 |
| 20260501201303 | 61 | 32 | 1.7 | 7.8 | 0.13 | 3.10 | 3.10 | 100 | 1007.4 |
| 20260501201203 | 62 | 48 | 2.6 | 7.8 | 0.13 | 3.10 | 3.10 | 100 | 1007.2 |
| 20260501201104 | 62 | 48 | 2.6 | 7.8 | 0.13 | 3.10 | 3.10 | 100 | 1007.1 |
| 20260501200943 | 62 | 48 | 2.6 | 7.8 | 0.14 | 3.10 | 3.10 | 100 | 1007.1 |
| 20260501200844 | 62 | 48 | 2.6 | 7.8 | 0.14 | 3.10 | 3.10 | 100 | 1007.1 |
| 20260501200742 | 62 | 66 | 2.6 | 7.8 | 0.15 | 3.10 | 3.10 | 100 | 1007.1 |
| 20260501200644 | 62 | 35 | 1.7 | 7.8 | 0.14 | 3.09 | 3.09 | 100 | 1006.9 |
| 20260501200542 | 62 | 93 | 2.6 | 7.8 | 0.14 | 3.09 | 3.09 | 100 | 1006.6 |
| 20260501200444 | 62 | 23 | 3.5 | 7.8 | 0.15 | 3.09 | 3.09 | 100 | 1006.5 |
| 20260501200343 | 62 | 92 | 2.6 | 5.2 | 0.15 | 3.09 | 3.09 | 100 | 1006.5 |
| 20260501200244 | 62 | 25 | 2.6 | 5.2 | 0.16 | 3.09 | 3.09 | 100 | 1006.8 |
| 20260501200144 | 62 | 89 | 2.6 | 5.2 | 0.16 | 3.09 | 3.09 | 100 | 1007.0 |
| 20260501200044 | 62 | 76 | 1.7 | 8.7 | 0.18 | 3.09 | 3.09 | 100 | 1007.2 |
| 20260501195943 | 62 | 47 | 1.7 | 8.7 | 0.18 | 3.09 | 3.09 | 100 | 1007.4 |
| 20260501195843 | 62 | 47 | 1.7 | 8.7 | 0.17 | 3.08 | 3.08 | 100 | 1007.4 |
| 20260501195743 | 62 | 0 | 1.7 | 8.7 | 0.17 | 3.08 | 3.08 | 100 | 1007.4 |
| 20260501195643 | 62 | 357 | 1.7 | 8.7 | 0.17 | 3.08 | 3.08 | 100 | 1007.3 |
| 20260501195543 | 62 | 73 | 1.7 | 8.7 | 0.18 | 3.08 | 3.08 | 100 | 1007.3 |
| 20260501195444 | 62 | 79 | 1.7 | 8.7 | 0.19 | 3.08 | 3.08 | 100 | 1007.2 |
| 20260501195342 | 62 | 72 | 1.7 | 8.7 | 0.19 | 3.08 | 3.08 | 100 | 1007.1 |
| 20260501195243 | 62 | 48 | 2.6 | 8.7 | 0.19 | 3.08 | 3.08 | 100 | 1006.8 |
| 20260501195143 | 62 | 79 | 3.5 | 8.7 | 0.19 | 3.08 | 3.08 | 100 | 1006.6 |
| 20260501195042 | 62 | 73 | 1.7 | 5.2 | 0.20 | 3.08 | 3.08 | 100 | 1006.4 |
| 20260501194943 | 62 | 48 | 0.9 | 2.6 | 0.20 | 3.07 | 3.07 | 100 | 1006.4 |
| 20260501194842 | 62 | 83 | 1.7 | 2.6 | 0.19 | 3.07 | 3.07 | 100 | 1006.4 |
| 20260501194743 | 62 | 63 | 1.7 | 2.6 | 0.20 | 3.07 | 3.07 | 100 | 1006.6 |
| 20260501194643 | 0 | 68 | 1.7 | 1.7 | 0.20 | 3.03 | 3.03 | 1006.7 | |
| 20260501194543 | 0 | 0.0 | 0.0 | 0.17 | 3.02 | 3.02 | 1006.7 | ||
| 20260501194443 | 0 | 0.0 | 0.0 | 0.17 | 3.02 | 3.02 | 1006.8 | ||
| 20260501194343 | 0 | 0.0 | 0.0 | 0.18 | 3.02 | 3.02 | 1006.8 | ||
| 20260501194242 | 0 | 0.0 | 0.0 | 0.19 | 3.02 | 3.02 | 1006.7 | ||
| 20260501194141 | 0 | 0.0 | 0.0 | 0.19 | 3.02 | 3.02 | 1006.8 | ||
| 20260501194042 | 0 | 0.0 | 0.0 | 0.19 | 3.02 | 3.02 | 1006.8 | ||
| 20260501193940 | 0 | 0.0 | 0.0 | 0.24 | 3.02 | 3.02 | 1006.8 | ||
| 20260501193842 | 0 | 0.0 | 0.0 | 0.24 | 3.02 | 3.02 | 1006.8 | ||
| 20260501193739 | 0 | 0.0 | 0.0 | 0.24 | 3.02 | 3.02 | 1006.8 | ||
| 20260501193639 | 62 | 87 | 3.5 | 5.2 | 0.24 | 3.02 | 3.02 | 100 | 1006.9 |
| 20260501193540 | 62 | 87 | 3.5 | 5.2 | 0.24 | 3.02 | 3.02 | 100 | 1006.9 |
| 20260501193439 | 62 | 87 | 3.5 | 5.2 | 0.24 | 3.02 | 3.02 | 100 | 1006.9 |
| 20260501193339 | 62 | 87 | 3.5 | 5.2 | 0.24 | 3.02 | 3.02 | 100 | 1006.8 |
| 20260501193237 | 62 | 87 | 3.5 | 6.1 | 0.24 | 3.02 | 3.02 | 100 | 1006.9 |
| 20260501193137 | 62 | 87 | 3.5 | 6.1 | 0.24 | 3.02 | 3.02 | 100 | 1006.8 |
| 20260501193038 | 62 | 87 | 3.5 | 6.1 | 0.24 | 3.02 | 3.02 | 100 | 1006.7 |
| 20260501192937 | 62 | 87 | 3.5 | 6.1 | 0.25 | 3.02 | 3.02 | 100 | 1006.6 |
| 20260501192837 | 62 | 87 | 3.5 | 6.1 | 0.25 | 3.02 | 3.02 | 100 | 1006.4 |
| 20260501192737 | 62 | 87 | 3.5 | 6.1 | 0.25 | 3.02 | 3.02 | 100 | 1006.4 |
| 20260501192637 | 62 | 48 | 1.7 | 6.1 | 0.24 | 3.02 | 3.02 | 100 | 1006.3 |
| 20260501192537 | 62 | 65 | 2.6 | 6.1 | 0.25 | 3.02 | 3.02 | 100 | 1006.2 |
| 20260501192438 | 62 | 66 | 2.6 | 6.1 | 0.25 | 3.01 | 3.01 | 100 | 1006.4 |
| 20260501192338 | 62 | 30 | 3.5 | 6.1 | 0.26 | 3.01 | 3.01 | 100 | 1006.4 |
| 20260501192237 | 62 | 58 | 2.6 | 5.2 | 0.26 | 3.01 | 3.01 | 100 | 1006.6 |
| 20260501192138 | 62 | 73 | 1.7 | 5.2 | 0.26 | 3.00 | 3.00 | 100 | 1006.5 |
| 20260501192037 | 62 | 51 | 1.7 | 2.6 | 0.25 | 3.00 | 3.00 | 100 | 1006.6 |
| 20260501191937 | 62 | 85 | 1.7 | 2.6 | 0.26 | 2.97 | 2.97 | 100 | 1006.5 |
| 20260501191837 | 62 | 76 | 0.9 | 2.6 | 0.26 | 2.97 | 2.97 | 100 | 1006.4 |
| 20260501191733 | 62 | 72 | 1.7 | 2.6 | 0.23 | 2.97 | 2.97 | 100 | 1006.4 |
| 20260501191634 | 62 | 72 | 1.7 | 3.5 | 0.23 | 2.97 | 2.97 | 100 | 1006.4 |
| 20260501191534 | 62 | 72 | 1.7 | 3.5 | 0.23 | 2.97 | 2.97 | 100 | 1006.5 |
| 20260501191434 | 62 | 72 | 1.7 | 3.5 | 0.23 | 2.97 | 2.97 | 100 | 1006.5 |
| 20260501191334 | 62 | 72 | 1.7 | 3.5 | 0.24 | 2.97 | 2.97 | 100 | 1006.4 |
| 20260501191234 | 62 | 72 | 1.7 | 4.3 | 0.24 | 2.97 | 2.97 | 100 | 1006.5 |
| 20260501191134 | 62 | 69 | 1.7 | 6.1 | 0.24 | 2.97 | 2.97 | 100 | 1006.5 |
| 20260501191034 | 62 | 71 | 1.7 | 6.1 | 0.23 | 2.95 | 2.95 | 100 | 1006.5 |
| 20260501190934 | 62 | 7 | 1.7 | 6.1 | 0.23 | 2.95 | 2.95 | 100 | 1006.5 |
| 20260501190831 | 62 | 21 | 1.7 | 6.1 | 0.23 | 2.95 | 2.95 | 100 | 1006.7 |
| 20260501190731 | 62 | 99 | 1.7 | 6.1 | 0.22 | 2.95 | 2.95 | 100 | 1006.8 |
| 20260501190622 | 62 | 55 | 1.7 | 6.1 | 0.22 | 2.94 | 2.94 | 100 | 1006.8 |
| 20260501190518 | 62 | 27 | 1.7 | 6.1 | 0.21 | 2.94 | 2.94 | 100 | 1006.8 |